Wetterdaten: Sonntag, 22.05.2016
Datum Zeit Temp. Aussen Temp. o. S. +5cm Feuchte Auss BlattFeu 1 Luftdruck Regen Sonnenschein Regendauer Solar Windben Empfang
22.05.2016 00:00 20,1 C 20,0 C 17,8 C 68 % 0 lf 1010,0 hPa 0,0 l/m 0 min 0 min 0 W/m 10,5 km/h (2 Bft) 95,74 %
22.05.2016 00:02 20,1 C 20,0 C 17,8 C 68 % 0 lf 1010,1 hPa 0,0 l/m 0 min 0 min 0 W/m 14,6 km/h (3 Bft) 97,44 %
22.05.2016 00:06 20,0 C 19,4 C 17,8 C 68 % 0 lf 1010,1 hPa 0,0 l/m 0 min 0 min 0 W/m 10,5 km/h (2 Bft) 94,74 %
22.05.2016 00:08 20,0 C 19,4 C 17,8 C 68 % 0 lf 1010,0 hPa 0,0 l/m 0 min 0 min 0 W/m 10,5 km/h (2 Bft) 95,74 %
22.05.2016 00:10 20,0 C 19,4 C 17,8 C 68 % 0 lf 1010,0 hPa 0,0 l/m 0 min 0 min 0 W/m 10,5 km/h (2 Bft) 93,62 %
22.05.2016 00:12 19,9 C 19,4 C 17,8 C 68 % 0 lf 1010,1 hPa 0,0 l/m 0 min 0 min 0 W/m 8,4 km/h (2 Bft) 93,62 %
22.05.2016 00:14 19,9 C 19,4 C 17,2 C 68 % 0 lf 1010,1 hPa 0,0 l/m 0 min 0 min 0 W/m 6,3 km/h (2 Bft) 97,83 %
22.05.2016 00:16 19,9 C 19,4 C 17,2 C 68 % 0 lf 1010,1 hPa 0,0 l/m 0 min 0 min 0 W/m 6,3 km/h (2 Bft) 95,74 %
22.05.2016 00:18 19,9 C 19,4 C 17,2 C 68 % 0 lf 1010,1 hPa 0,0 l/m 0 min 0 min 0 W/m 6,3 km/h (2 Bft) 95,74 %
22.05.2016 00:20 19,9 C 18,9 C 16,7 C 68 % 0 lf 1010,1 hPa 0,0 l/m 0 min 0 min 0 W/m 6,3 km/h (2 Bft) 97,87 %
22.05.2016 00:22 19,9 C 18,9 C 16,7 C 68 % 0 lf 1010,1 hPa 0,0 l/m 0 min 0 min 0 W/m 4,2 km/h (1 Bft) 93,62 %
22.05.2016 00:24 19,8 C 18,9 C 16,7 C 69 % 0 lf 1010,0 hPa 0,0 l/m 0 min 0 min 0 W/m 4,2 km/h (1 Bft) 97,87 %
22.05.2016 00:26 19,8 C 18,3 C 16,1 C 69 % 0 lf 1010,0 hPa 0,0 l/m 0 min 0 min 0 W/m 4,2 km/h (1 Bft) 95,65 %
22.05.2016 00:28 19,8 C 18,3 C 16,1 C 69 % 0 lf 1009,9 hPa 0,0 l/m 0 min 0 min 0 W/m 4,2 km/h (1 Bft) 93,62 %
22.05.2016 00:30 19,7 C 18,3 C 15,6 C 69 % 0 lf 1009,9 hPa 0,0 l/m 0 min 0 min 0 W/m 6,3 km/h (2 Bft) 97,87 %
22.05.2016 00:32 19,7 C 18,3 C 15,6 C 69 % 0 lf 1009,8 hPa 0,0 l/m 0 min 0 min 0 W/m 6,3 km/h (2 Bft) 93,62 %
22.05.2016 00:34 19,7 C 17,8 C 15,6 C 69 % 0 lf 1009,9 hPa 0,0 l/m 0 min 0 min 0 W/m 6,3 km/h (2 Bft) 95,74 %
22.05.2016 00:36 19,6 C 17,8 C 15,6 C 69 % 0 lf 1009,9 hPa 0,0 l/m 0 min 0 min 0 W/m 8,4 km/h (2 Bft) 95,74 %
22.05.2016 00:38 19,6 C 17,8 C 15,0 C 69 % 0 lf 1009,8 hPa 0,0 l/m 0 min 0 min 0 W/m 6,3 km/h (2 Bft) 97,83 %
22.05.2016 00:40 19,6 C 17,8 C 15,0 C 69 % 0 lf 1009,8 hPa 0,0 l/m 0 min 0 min 0 W/m 6,3 km/h (2 Bft) 100,00 %
22.05.2016 00:42 19,4 C 17,8 C 15,0 C 69 % 0 lf 1009,9 hPa 0,0 l/m 0 min 0 min 0 W/m 6,3 km/h (2 Bft) 97,87 %
22.05.2016 00:44 19,4 C 17,8 C 15,0 C 69 % 0 lf 1009,8 hPa 0,0 l/m 0 min 0 min 0 W/m 8,4 km/h (2 Bft) 100,00 %
22.05.2016 00:46 19,4 C 17,8 C 15,0 C 70 % 0 lf 1009,8 hPa 0,0 l/m 0 min 0 min 0 W/m 10,5 km/h (2 Bft) 95,74 %
22.05.2016 00:48 19,3 C 17,8 C 15,0 C 70 % 0 lf 1009,8 hPa 0,0 l/m 0 min 0 min 0 W/m 10,5 km/h (2 Bft) 100,00 %
22.05.2016 00:50 19,2 C 17,8 C 15,0 C 70 % 0 lf 1009,7 hPa 0,0 l/m 0 min 0 min 0 W/m 8,4 km/h (2 Bft) 100,00 %
22.05.2016 00:52 19,1 C 17,8 C 15,6 C 70 % 0 lf 1009,7 hPa 0,0 l/m 0 min 0 min 0 W/m 8,4 km/h (2 Bft) 100,00 %
22.05.2016 00:54 19,1 C 17,8 C 15,6 C 71 % 0 lf 1009,7 hPa 0,0 l/m 0 min 0 min 0 W/m 10,5 km/h (2 Bft) 100,00 %
22.05.2016 00:56 19,0 C 17,8 C 15,6 C 71 % 0 lf 1009,6 hPa 0,0 l/m 0 min 0 min 0 W/m 12,6 km/h (3 Bft) 97,87 %
22.05.2016 00:58 18,9 C 17,8 C 15,6 C 71 % 0 lf 1009,6 hPa 0,0 l/m 0 min 0 min 0 W/m 12,6 km/h (3 Bft) 100,00 %
22.05.2016 01:00 18,8 C 17,8 C 15,6 C 71 % 0 lf 1009,7 hPa 0,0 l/m 0 min 0 min 0 W/m 10,5 km/h (2 Bft) 100,00 %
22.05.2016 01:02 18,7 C 17,8 C 15,6 C 72 % 0 lf 1009,6 hPa 0,0 l/m 0 min 0 min 0 W/m 10,5 km/h (2 Bft) 97,83 %
22.05.2016 01:04 18,7 C 17,8 C 16,1 C 72 % 0 lf 1009,5 hPa 0,0 l/m 0 min 0 min 0 W/m 12,6 km/h (3 Bft) 100,00 %
22.05.2016 01:06 18,6 C 17,8 C 15,6 C 72 % 0 lf 1009,5 hPa 0,0 l/m 0 min 0 min 0 W/m 16,7 km/h (3 Bft) 100,00 %
22.05.2016 01:08 18,6 C 17,8 C 15,6 C 72 % 0 lf 1009,4 hPa 0,0 l/m 0 min 0 min 0 W/m 16,7 km/h (3 Bft) 100,00 %
22.05.2016 01:10 18,5 C 17,8 C 15,6 C 72 % 0 lf 1009,4 hPa 0,0 l/m 0 min 0 min 0 W/m 16,7 km/h (3 Bft) 100,00 %
22.05.2016 01:12 18,4 C 17,8 C 15,6 C 73 % 0 lf 1009,4 hPa 0,0 l/m 0 min 0 min 0 W/m 12,6 km/h (3 Bft) 97,87 %
22.05.2016 01:14 18,4 C 17,8 C 15,6 C 73 % 0 lf 1009,4 hPa 0,0 l/m 0 min 0 min 0 W/m 18,8 km/h (3 Bft) 100,00 %
22.05.2016 01:16 18,4 C 17,8 C 15,6 C 73 % 0 lf 1009,3 hPa 0,0 l/m 0 min 0 min 0 W/m 12,6 km/h (3 Bft) 97,87 %
22.05.2016 01:18 18,3 C 17,2 C 15,6 C 73 % 0 lf 1009,3 hPa 0,0 l/m 0 min 0 min 0 W/m 10,5 km/h (2 Bft) 97,87 %
22.05.2016 01:20 18,3 C 17,2 C 15,6 C 73 % 0 lf 1009,3 hPa 0,0 l/m 0 min 0 min 0 W/m 14,6 km/h (3 Bft) 100,00 %
22.05.2016 01:22 18,2 C 17,2 C 15,6 C 73 % 0 lf 1009,2 hPa 0,0 l/m 0 min 0 min 0 W/m 8,4 km/h (2 Bft) 93,62 %
22.05.2016 01:24 18,2 C 17,2 C 15,6 C 73 % 0 lf 1009,3 hPa 0,0 l/m 0 min 0 min 0 W/m 14,6 km/h (3 Bft) 97,83 %
22.05.2016 01:26 18,1 C 17,8 C 15,6 C 74 % 0 lf 1009,2 hPa 0,0 l/m 0 min 0 min 0 W/m 8,4 km/h (2 Bft) 97,87 %
22.05.2016 01:28 18,1 C 17,2 C 15,6 C 74 % 0 lf 1009,3 hPa 0,0 l/m 0 min 0 min 0 W/m 8,4 km/h (2 Bft) 100,00 %
22.05.2016 01:30 18,1 C 17,2 C 15,6 C 74 % 0 lf 1009,2 hPa 0,0 l/m 0 min 0 min 0 W/m 10,5 km/h (2 Bft) 97,87 %
22.05.2016 01:32 18,0 C 17,2 C 15,6 C 74 % 0 lf 1009,2 hPa 0,0 l/m 0 min 0 min 0 W/m 10,5 km/h (2 Bft) 97,87 %
22.05.2016 01:34 18,0 C 17,2 C 15,0 C 74 % 0 lf 1009,1 hPa 0,0 l/m 0 min 0 min 0 W/m 12,6 km/h (3 Bft) 97,87 %
22.05.2016 01:36 17,9 C 17,2 C 15,0 C 74 % 0 lf 1009,1 hPa 0,0 l/m 0 min 0 min 0 W/m 12,6 km/h (3 Bft) 97,83 %
22.05.2016 01:38 17,9 C 16,7 C 15,0 C 74 % 0 lf 1009,1 hPa 0,0 l/m 0 min 0 min 0 W/m 10,5 km/h (2 Bft) 97,87 %
22.05.2016 01:40 17,9 C 16,7 C 15,0 C 74 % 0 lf 1009,1 hPa 0,0 l/m 0 min 0 min 0 W/m 12,6 km/h (3 Bft) 97,87 %
22.05.2016 01:42 17,8 C 16,7 C 15,0 C 75 % 0 lf 1009,1 hPa 0,0 l/m 0 min 0 min 0 W/m 10,5 km/h (2 Bft) 97,87 %
22.05.2016 01:44 17,8 C 16,7 C 15,0 C 75 % 0 lf 1009,1 hPa 0,0 l/m 0 min 0 min 0 W/m 12,6 km/h (3 Bft) 97,87 %
22.05.2016 01:46 17,8 C 16,7 C 15,0 C 75 % 0 lf 1009,0 hPa 0,0 l/m 0 min 0 min 0 W/m 8,4 km/h (2 Bft) 97,87 %
22.05.2016 01:48 17,7 C 16,7 C 15,0 C 75 % 0 lf 1009,0 hPa 0,0 l/m 0 min 0 min 0 W/m 8,4 km/h (2 Bft) 97,83 %
22.05.2016 01:50 17,7 C 17,2 C 15,0 C 75 % 0 lf 1009,0 hPa 0,0 l/m 0 min 0 min 0 W/m 10,5 km/h (2 Bft) 95,74 %
22.05.2016 01:52 17,7 C 17,2 C 15,0 C 75 % 0 lf 1009,0 hPa 0,0 l/m 0 min 0 min 0 W/m 10,5 km/h (2 Bft) 93,62 %
22.05.2016 01:54 17,6 C 16,7 C 15,0 C 75 % 0 lf 1009,0 hPa 0,0 l/m 0 min 0 min 0 W/m 10,5 km/h (2 Bft) 97,87 %
22.05.2016 01:56 17,6 C 16,7 C 15,0 C 76 % 0 lf 1009,0 hPa 0,0 l/m 0 min 0 min 0 W/m 10,5 km/h (2 Bft) 95,74 %
22.05.2016 01:58 17,6 C 16,7 C 15,0 C 76 % 0 lf 1008,9 hPa 0,0 l/m 0 min 0 min 0 W/m 6,3 km/h (2 Bft) 91,49 %
22.05.2016 02:00 17,5 C 16,7 C 15,0 C 76 % 0 lf 1008,9 hPa 0,0 l/m 0 min 0 min 0 W/m 6,3 km/h (2 Bft) 93,48 %
22.05.2016 02:02 17,5 C 16,7 C 15,0 C 76 % 0 lf 1009,0 hPa 0,0 l/m 0 min 0 min 0 W/m 8,4 km/h (2 Bft) 91,49 %
22.05.2016 02:04 17,4 C 16,7 C 15,0 C 76 % 0 lf 1009,0 hPa 0,0 l/m 0 min 0 min 0 W/m 8,4 km/h (2 Bft) 87,23 %
22.05.2016 02:06 17,4 C 16,7 C 15,0 C 76 % 0 lf 1009,0 hPa 0,0 l/m 0 min 0 min 0 W/m 12,6 km/h (3 Bft) 95,74 %
22.05.2016 02:08 17,4 C 16,7 C 15,0 C 76 % 0 lf 1008,9 hPa 0,0 l/m 0 min 0 min 0 W/m 10,5 km/h (2 Bft) 93,62 %
22.05.2016 02:10 17,3 C 16,7 C 15,0 C 76 % 0 lf 1008,9 hPa 0,0 l/m 0 min 0 min 0 W/m 10,5 km/h (2 Bft) 93,62 %
22.05.2016 02:12 17,3 C 16,7 C 14,4 C 77 % 0 lf 1008,8 hPa 0,0 l/m 0 min 0 min 0 W/m 8,4 km/h (2 Bft) 93,48 %
22.05.2016 02:14 17,3 C 16,7 C 14,4 C 77 % 0 lf 1008,8 hPa 0,0 l/m 0 min 0 min 0 W/m 12,6 km/h (3 Bft) 87,23 %
22.05.2016 02:16 17,2 C 16,7 C 14,4 C 77 % 0 lf 1008,6 hPa 0,0 l/m 0 min 0 min 0 W/m 14,6 km/h (3 Bft) 89,36 %
22.05.2016 02:18 17,2 C 16,7 C 14,4 C 77 % 0 lf 1008,6 hPa 0,0 l/m 0 min 0 min 0 W/m 12,6 km/h (3 Bft) 95,74 %
22.05.2016 02:20 17,2 C 16,7 C 15,0 C 77 % 0 lf 1008,5 hPa 0,0 l/m 0 min 0 min 0 W/m 12,6 km/h (3 Bft) 93,62 %
22.05.2016 02:22 17,1 C 16,7 C 15,0 C 77 % 0 lf 1008,4 hPa 0,0 l/m 0 min 0 min 0 W/m 14,6 km/h (3 Bft) 93,62 %
22.05.2016 02:24 17,1 C 16,7 C 15,0 C 77 % 0 lf 1008,4 hPa 0,0 l/m 0 min 0 min 0 W/m 10,5 km/h (2 Bft) 91,30 %
22.05.2016 02:26 17,1 C 16,7 C 14,4 C 77 % 0 lf 1008,3 hPa 0,0 l/m 0 min 0 min 0 W/m 6,3 km/h (2 Bft) 91,49 %
22.05.2016 02:28 17,1 C 16,1 C 14,4 C 77 % 0 lf 1008,3 hPa 0,0 l/m 0 min 0 min 0 W/m 10,5 km/h (2 Bft) 93,62 %
22.05.2016 02:30 17,0 C 16,1 C 14,4 C 78 % 0 lf 1008,3 hPa 0,0 l/m 0 min 0 min 0 W/m 8,4 km/h (2 Bft) 91,49 %
22.05.2016 02:32 17,0 C 16,1 C 14,4 C 78 % 0 lf 1008,3 hPa 0,0 l/m 0 min 0 min 0 W/m 6,3 km/h (2 Bft) 91,49 %
22.05.2016 02:34 16,9 C 16,1 C 14,4 C 78 % 0 lf 1008,3 hPa 0,0 l/m 0 min 0 min 0 W/m 6,3 km/h (2 Bft) 93,62 %
22.05.2016 02:36 16,9 C 16,1 C 13,9 C 78 % 0 lf 1008,3 hPa 0,0 l/m 0 min 0 min 0 W/m 6,3 km/h (2 Bft) 91,30 %
22.05.2016 02:38 16,9 C 16,1 C 14,4 C 78 % 0 lf 1008,3 hPa 0,0 l/m 0 min 0 min 0 W/m 10,5 km/h (2 Bft) 95,74 %
22.05.2016 02:40 16,9 C 16,1 C 13,9 C 78 % 0 lf 1008,3 hPa 0,0 l/m 0 min 0 min 0 W/m 8,4 km/h (2 Bft) 95,74 %
22.05.2016 02:42 16,8 C 16,1 C 13,9 C 78 % 0 lf 1008,3 hPa 0,0 l/m 0 min 0 min 0 W/m 8,4 km/h (2 Bft) 91,67 %
22.05.2016 02:44 16,8 C 16,1 C 14,4 C 78 % 0 lf 1008,3 hPa 0,0 l/m 0 min 0 min 0 W/m 6,3 km/h (2 Bft) 95,74 %
22.05.2016 02:46 16,7 C 16,1 C 14,4 C 78 % 0 lf 1008,2 hPa 0,0 l/m 0 min 0 min 0 W/m 8,4 km/h (2 Bft) 93,48 %
22.05.2016 02:48 16,7 C 16,1 C 13,9 C 78 % 0 lf 1008,2 hPa 0,0 l/m 0 min 0 min 0 W/m 10,5 km/h (2 Bft) 93,62 %
22.05.2016 02:50 16,7 C 16,1 C 13,9 C 78 % 0 lf 1008,3 hPa 0,0 l/m 0 min 0 min 0 W/m 8,4 km/h (2 Bft) 93,62 %
22.05.2016 02:52 16,6 C 16,1 C 13,9 C 78 % 0 lf 1008,3 hPa 0,0 l/m 0 min 0 min 0 W/m 6,3 km/h (2 Bft) 89,36 %
22.05.2016 02:54 16,6 C 16,1 C 14,4 C 79 % 0 lf 1008,3 hPa 0,0 l/m 0 min 0 min 0 W/m 8,4 km/h (2 Bft) 95,74 %
22.05.2016 02:56 16,6 C 16,1 C 13,9 C 79 % 0 lf 1008,3 hPa 0,0 l/m 0 min 0 min 0 W/m 8,4 km/h (2 Bft) 93,62 %
22.05.2016 02:58 16,5 C 16,1 C 13,9 C 79 % 0 lf 1008,3 hPa 0,0 l/m 0 min 0 min 0 W/m 6,3 km/h (2 Bft) 89,13 %
22.05.2016 03:00 16,4 C 16,1 C 13,9 C 79 % 0 lf 1008,2 hPa 0,0 l/m 0 min 0 min 0 W/m 8,4 km/h (2 Bft) 95,74 %
22.05.2016 03:02 16,4 C 15,6 C 13,9 C 79 % 0 lf 1008,2 hPa 0,0 l/m 0 min 0 min 0 W/m 8,4 km/h (2 Bft) 95,74 %
22.05.2016 03:04 16,4 C 15,6 C 13,9 C 79 % 0 lf 1008,2 hPa 0,0 l/m 0 min 0 min 0 W/m 6,3 km/h (2 Bft) 95,74 %
22.05.2016 03:06 16,4 C 15,6 C 13,9 C 79 % 0 lf 1008,2 hPa 0,0 l/m 0 min 0 min 0 W/m 4,2 km/h (1 Bft) 91,49 %
22.05.2016 03:08 16,3 C 15,6 C 13,9 C 79 % 0 lf 1008,2 hPa 0,0 l/m 0 min 0 min 0 W/m 6,3 km/h (2 Bft) 97,87 %
22.05.2016 03:10 16,3 C 15,6 C 13,9 C 79 % 0 lf 1008,1 hPa 0,0 l/m 0 min 0 min 0 W/m 6,3 km/h (2 Bft) 100,00 %
22.05.2016 03:12 16,3 C 15,6 C 13,9 C 79 % 0 lf 1008,1 hPa 0,0 l/m 0 min 0 min 0 W/m 6,3 km/h (2 Bft) 93,62 %
22.05.2016 03:14 16,3 C 15,6 C 13,9 C 79 % 0 lf 1008,1 hPa 0,0 l/m 0 min 0 min 0 W/m 8,4 km/h (2 Bft) 93,62 %
22.05.2016 03:16 16,2 C 15,6 C 13,9 C 79 % 0 lf 1008,1 hPa 0,0 l/m 0 min 0 min 0 W/m 8,4 km/h (2 Bft) 100,00 %
22.05.2016 03:18 16,2 C 15,6 C 13,3 C 79 % 0 lf 1008,1 hPa 0,0 l/m 0 min 0 min 0 W/m 8,4 km/h (2 Bft) 100,00 %
22.05.2016 03:20 16,2 C 15,6 C 13,3 C 79 % 0 lf 1008,1 hPa 0,0 l/m 0 min 0 min 0 W/m 8,4 km/h (2 Bft) 97,87 %
22.05.2016 03:22 16,1 C 15,6 C 13,9 C 80 % 0 lf 1008,0 hPa 0,0 l/m 0 min 0 min 0 W/m 8,4 km/h (2 Bft) 95,65 %
22.05.2016 03:24 16,1 C 15,6 C 13,9 C 80 % 0 lf 1008,0 hPa 0,0 l/m 0 min 0 min 0 W/m 10,5 km/h (2 Bft) 97,87 %
22.05.2016 03:26 16,1 C 15,6 C 13,9 C 80 % 0 lf 1008,0 hPa 0,0 l/m 0 min 0 min 0 W/m 8,4 km/h (2 Bft) 97,87 %
22.05.2016 03:28 16,1 C 15,6 C 13,3 C 80 % 0 lf 1008,0 hPa 0,0 l/m 0 min 0 min 0 W/m 10,5 km/h (2 Bft) 100,00 %
22.05.2016 03:30 16,0 C 15,6 C 13,9 C 80 % 0 lf 1008,0 hPa 0,0 l/m 0 min 0 min 0 W/m 8,4 km/h (2 Bft) 100,00 %
22.05.2016 03:32 16,0 C 15,6 C 13,9 C 80 % 0 lf 1008,1 hPa 0,0 l/m 0 min 0 min 0 W/m 8,4 km/h (2 Bft) 100,00 %
22.05.2016 03:34 15,9 C 15,6 C 13,9 C 80 % 0 lf 1008,1 hPa 0,0 l/m 0 min 0 min 0 W/m 12,6 km/h (3 Bft) 100,00 %
22.05.2016 03:38 15,9 C 15,6 C 13,9 C 80 % 0 lf 1007,9 hPa 0,0 l/m 0 min 0 min 0 W/m 12,6 km/h (3 Bft) 97,87 %
22.05.2016 03:40 15,9 C 15,6 C 13,9 C 81 % 0 lf 1007,9 hPa 0,0 l/m 0 min 0 min 0 W/m 10,5 km/h (2 Bft) 100,00 %
22.05.2016 03:42 15,8 C 15,6 C 13,9 C 81 % 0 lf 1007,9 hPa 0,0 l/m 0 min 0 min 0 W/m 8,4 km/h (2 Bft) 100,00 %
22.05.2016 03:44 15,8 C 15,6 C 13,9 C 81 % 0 lf 1007,9 hPa 0,0 l/m 0 min 0 min 0 W/m 12,6 km/h (3 Bft) 100,00 %
22.05.2016 03:46 15,8 C 15,6 C 13,9 C 81 % 0 lf 1007,8 hPa 0,0 l/m 0 min 0 min 0 W/m 12,6 km/h (3 Bft) 100,00 %
22.05.2016 03:48 15,8 C 15,6 C 13,9 C 81 % 0 lf 1007,8 hPa 0,0 l/m 0 min 0 min 0 W/m 12,6 km/h (3 Bft) 100,00 %
22.05.2016 03:50 15,8 C 16,1 C 13,9 C 81 % 0 lf 1007,7 hPa 0,0 l/m 0 min 0 min 0 W/m 14,6 km/h (3 Bft) 95,74 %
22.05.2016 03:52 15,8 C 16,1 C 14,4 C 81 % 0 lf 1007,8 hPa 0,0 l/m 0 min 0 min 0 W/m 14,6 km/h (3 Bft) 100,00 %
22.05.2016 03:54 15,8 C 16,1 C 14,4 C 81 % 0 lf 1007,7 hPa 0,0 l/m 0 min 0 min 0 W/m 14,6 km/h (3 Bft) 97,87 %
22.05.2016 03:56 15,8 C 16,1 C 13,9 C 81 % 0 lf 1007,7 hPa 0,0 l/m 0 min 0 min 0 W/m 14,6 km/h (3 Bft) 95,74 %
22.05.2016 03:58 15,8 C 16,1 C 13,9 C 81 % 0 lf 1007,6 hPa 0,0 l/m 0 min 0 min 0 W/m 10,5 km/h (2 Bft) 95,65 %
22.05.2016 04:00 15,8 C 16,1 C 14,4 C 81 % 0 lf 1007,6 hPa 0,0 l/m 0 min 0 min 0 W/m 10,5 km/h (2 Bft) 97,87 %
22.05.2016 04:02 15,8 C 16,1 C 14,4 C 81 % 0 lf 1007,6 hPa 0,0 l/m 0 min 0 min 0 W/m 10,5 km/h (2 Bft) 95,65 %
22.05.2016 04:04 15,8 C 16,1 C 14,4 C 81 % 0 lf 1007,5 hPa 0,0 l/m 0 min 0 min 0 W/m 18,8 km/h (3 Bft) 97,87 %
22.05.2016 04:06 15,8 C 16,1 C 14,4 C 81 % 0 lf 1007,5 hPa 0,0 l/m 0 min 0 min 0 W/m 14,6 km/h (3 Bft) 100,00 %
22.05.2016 04:08 15,8 C 16,1 C 14,4 C 81 % 0 lf 1007,4 hPa 0,0 l/m 0 min 0 min 0 W/m 20,9 km/h (4 Bft) 97,83 %
22.05.2016 04:10 15,8 C 16,1 C 14,4 C 81 % 0 lf 1007,5 hPa 0,0 l/m 0 min 0 min 0 W/m 12,6 km/h (3 Bft) 93,62 %
22.05.2016 04:12 15,9 C 16,1 C 14,4 C 81 % 0 lf 1007,4 hPa 0,0 l/m 0 min 0 min 0 W/m 12,6 km/h (3 Bft) 95,74 %
22.05.2016 04:14 15,9 C 16,1 C 14,4 C 81 % 0 lf 1007,5 hPa 0,0 l/m 0 min 0 min 0 W/m 8,4 km/h (2 Bft) 97,87 %
22.05.2016 04:16 15,9 C 16,1 C 14,4 C 81 % 0 lf 1007,5 hPa 0,0 l/m 0 min 0 min 0 W/m 16,7 km/h (3 Bft) 97,87 %
22.05.2016 04:18 15,9 C 16,1 C 14,4 C 81 % 0 lf 1007,4 hPa 0,0 l/m 0 min 0 min 0 W/m 14,6 km/h (3 Bft) 97,87 %
22.05.2016 04:20 15,9 C 16,1 C 14,4 C 81 % 0 lf 1007,4 hPa 0,0 l/m 0 min 0 min 0 W/m 14,6 km/h (3 Bft) 95,65 %
22.05.2016 04:22 15,9 C 16,1 C 14,4 C 81 % 0 lf 1007,5 hPa 0,0 l/m 0 min 0 min 0 W/m 14,6 km/h (3 Bft) 97,87 %
22.05.2016 04:24 15,9 C 16,1 C 14,4 C 81 % 0 lf 1007,4 hPa 0,0 l/m 0 min 0 min 0 W/m 14,6 km/h (3 Bft) 95,74 %
22.05.2016 04:26 16,0 C 16,1 C 14,4 C 81 % 0 lf 1007,3 hPa 0,0 l/m 0 min 0 min 0 W/m 16,7 km/h (3 Bft) 93,62 %
22.05.2016 04:28 16,0 C 16,1 C 14,4 C 81 % 0 lf 1007,3 hPa 0,0 l/m 0 min 0 min 0 W/m 16,7 km/h (3 Bft) 95,74 %
22.05.2016 04:30 16,0 C 16,1 C 14,4 C 81 % 0 lf 1007,2 hPa 0,0 l/m 0 min 0 min 0 W/m 14,6 km/h (3 Bft) 95,74 %
22.05.2016 04:32 16,0 C 16,1 C 14,4 C 81 % 0 lf 1007,2 hPa 0,0 l/m 0 min 0 min 0 W/m 16,7 km/h (3 Bft) 95,65 %
22.05.2016 04:34 16,0 C 16,1 C 14,4 C 81 % 0 lf 1007,2 hPa 0,0 l/m 0 min 0 min 0 W/m 20,9 km/h (4 Bft) 95,74 %
22.05.2016 04:36 16,1 C 16,1 C 14,4 C 81 % 0 lf 1007,1 hPa 0,0 l/m 0 min 0 min 0 W/m 14,6 km/h (3 Bft) 91,49 %
22.05.2016 04:38 16,1 C 16,1 C 14,4 C 81 % 0 lf 1007,1 hPa 0,0 l/m 0 min 0 min 0 W/m 20,9 km/h (4 Bft) 97,87 %
22.05.2016 04:40 16,1 C 16,1 C 14,4 C 81 % 0 lf 1007,1 hPa 0,0 l/m 0 min 0 min 0 W/m 29,3 km/h (5 Bft) 93,62 %
22.05.2016 04:42 16,1 C 16,7 C 15,0 C 81 % 0 lf 1007,0 hPa 0,0 l/m 0 min 0 min 0 W/m 16,7 km/h (3 Bft) 95,65 %
22.05.2016 04:44 16,1 C 16,7 C 15,0 C 81 % 0 lf 1006,9 hPa 0,0 l/m 0 min 0 min 0 W/m 16,7 km/h (3 Bft) 95,74 %
22.05.2016 04:46 16,2 C 16,7 C 15,0 C 81 % 0 lf 1006,9 hPa 0,0 l/m 0 min 0 min 0 W/m 14,6 km/h (3 Bft) 97,87 %
22.05.2016 04:48 16,2 C 16,7 C 15,0 C 81 % 0 lf 1006,9 hPa 0,0 l/m 0 min 0 min 0 W/m 18,8 km/h (3 Bft) 97,87 %
22.05.2016 04:50 16,2 C 16,7 C 15,0 C 81 % 0 lf 1006,9 hPa 0,0 l/m 0 min 0 min 0 W/m 20,9 km/h (4 Bft) 97,87 %
22.05.2016 04:52 16,2 C 16,7 C 15,0 C 80 % 0 lf 1006,9 hPa 0,0 l/m 0 min 0 min 0 W/m 23,0 km/h (4 Bft) 94,00 %
22.05.2016 04:54 16,3 C 16,7 C 15,0 C 80 % 0 lf 1006,8 hPa 0,0 l/m 0 min 0 min 0 W/m 20,9 km/h (4 Bft) 97,83 %
22.05.2016 04:56 16,3 C 16,7 C 15,0 C 80 % 0 lf 1006,7 hPa 0,0 l/m 0 min 0 min 0 W/m 20,9 km/h (4 Bft) 95,74 %
22.05.2016 04:58 16,3 C 16,7 C 15,0 C 80 % 0 lf 1006,7 hPa 0,0 l/m 0 min 0 min 0 W/m 20,9 km/h (4 Bft) 97,87 %
22.05.2016 05:00 16,4 C 16,7 C 15,0 C 80 % 0 lf 1006,6 hPa 0,0 l/m 0 min 0 min 0 W/m 27,2 km/h (4 Bft) 97,87 %
22.05.2016 05:02 16,4 C 16,7 C 15,0 C 80 % 0 lf 1006,5 hPa 0,0 l/m 0 min 0 min 0 W/m 23,0 km/h (4 Bft) 97,87 %
22.05.2016 05:04 16,4 C 16,7 C 15,0 C 80 % 0 lf 1006,5 hPa 0,0 l/m 0 min 0 min 0 W/m 20,9 km/h (4 Bft) 95,74 %
22.05.2016 05:06 16,4 C 16,7 C 15,0 C 80 % 0 lf 1006,5 hPa 0,0 l/m 0 min 0 min 0 W/m 23,0 km/h (4 Bft) 97,83 %
22.05.2016 05:08 16,5 C 16,7 C 15,0 C 79 % 0 lf 1006,5 hPa 0,0 l/m 0 min 0 min 0 W/m 16,7 km/h (3 Bft) 95,74 %
22.05.2016 05:10 16,5 C 16,7 C 15,0 C 79 % 0 lf 1006,4 hPa 0,0 l/m 0 min 0 min 0 W/m 23,0 km/h (4 Bft) 93,62 %
22.05.2016 05:12 16,6 C 16,7 C 15,0 C 79 % 0 lf 1006,4 hPa 0,0 l/m 0 min 0 min 0 W/m 18,8 km/h (3 Bft) 93,62 %
22.05.2016 05:14 16,6 C 16,7 C 15,0 C 79 % 0 lf 1006,3 hPa 0,0 l/m 0 min 0 min 0 W/m 27,2 km/h (4 Bft) 95,74 %
22.05.2016 05:16 16,6 C 16,7 C 15,0 C 79 % 0 lf 1006,2 hPa 0,0 l/m 0 min 0 min 0 W/m 20,9 km/h (4 Bft) 95,74 %
22.05.2016 05:18 16,6 C 16,7 C 15,6 C 79 % 0 lf 1006,3 hPa 0,0 l/m 0 min 0 min 0 W/m 27,2 km/h (4 Bft) 97,83 %
22.05.2016 05:20 16,7 C 16,7 C 15,6 C 78 % 0 lf 1006,3 hPa 0,0 l/m 0 min 0 min 0 W/m 20,9 km/h (4 Bft) 97,87 %
22.05.2016 05:22 16,7 C 16,7 C 15,0 C 78 % 0 lf 1006,3 hPa 0,0 l/m 0 min 0 min 0 W/m 18,8 km/h (3 Bft) 93,62 %
22.05.2016 05:24 16,7 C 16,7 C 15,0 C 78 % 0 lf 1006,2 hPa 0,0 l/m 0 min 0 min 0 W/m 18,8 km/h (3 Bft) 97,87 %
22.05.2016 05:26 16,7 C 16,7 C 15,0 C 78 % 0 lf 1006,2 hPa 0,0 l/m 0 min 0 min 0 W/m 16,7 km/h (3 Bft) 97,87 %
22.05.2016 05:28 16,7 C 16,7 C 15,0 C 78 % 0 lf 1006,2 hPa 0,0 l/m 0 min 0 min 0 W/m 18,8 km/h (3 Bft) 95,74 %
22.05.2016 05:30 16,7 C 16,7 C 15,0 C 78 % 0 lf 1006,2 hPa 0,0 l/m 0 min 0 min 0 W/m 20,9 km/h (4 Bft) 97,83 %
22.05.2016 05:32 16,7 C 16,7 C 15,0 C 78 % 0 lf 1006,2 hPa 0,0 l/m 0 min 0 min 0 W/m 18,8 km/h (3 Bft) 93,62 %
22.05.2016 05:34 16,7 C 16,7 C 15,0 C 78 % 0 lf 1006,2 hPa 0,0 l/m 0 min 0 min 1 W/m 14,6 km/h (3 Bft) 95,74 %
22.05.2016 05:36 16,7 C 16,7 C 15,0 C 78 % 0 lf 1006,2 hPa 0,0 l/m 0 min 0 min 5 W/m 14,6 km/h (3 Bft) 97,87 %
22.05.2016 05:38 16,7 C 16,7 C 15,0 C 78 % 0 lf 1006,2 hPa 0,0 l/m 0 min 0 min 6 W/m 18,8 km/h (3 Bft) 97,87 %
22.05.2016 05:40 16,7 C 16,1 C 15,0 C 78 % 0 lf 1006,2 hPa 0,0 l/m 0 min 0 min 7 W/m 12,6 km/h (3 Bft) 95,74 %
22.05.2016 05:42 16,7 C 16,1 C 14,4 C 78 % 0 lf 1006,1 hPa 0,0 l/m 0 min 0 min 7 W/m 14,6 km/h (3 Bft) 95,65 %
22.05.2016 05:44 16,7 C 16,1 C 14,4 C 78 % 0 lf 1006,1 hPa 0,0 l/m 0 min 0 min 9 W/m 18,8 km/h (3 Bft) 95,74 %
22.05.2016 05:46 16,7 C 16,1 C 14,4 C 78 % 0 lf 1006,1 hPa 0,0 l/m 0 min 0 min 10 W/m 18,8 km/h (3 Bft) 95,74 %
22.05.2016 05:48 16,6 C 16,1 C 14,4 C 78 % 0 lf 1006,0 hPa 0,0 l/m 0 min 0 min 11 W/m 16,7 km/h (3 Bft) 93,62 %
22.05.2016 05:50 16,6 C 16,1 C 14,4 C 78 % 0 lf 1005,9 hPa 0,0 l/m 0 min 0 min 12 W/m 18,8 km/h (3 Bft) 93,62 %
22.05.2016 05:52 16,6 C 16,1 C 14,4 C 78 % 0 lf 1006,0 hPa 0,0 l/m 0 min 0 min 14 W/m 18,8 km/h (3 Bft) 95,74 %
22.05.2016 05:54 16,6 C 16,1 C 14,4 C 78 % 0 lf 1005,9 hPa 0,0 l/m 0 min 0 min 15 W/m 12,6 km/h (3 Bft) 91,30 %
22.05.2016 05:56 16,6 C 16,1 C 15,0 C 78 % 0 lf 1005,9 hPa 0,0 l/m 0 min 0 min 18 W/m 18,8 km/h (3 Bft) 93,62 %
22.05.2016 05:58 16,5 C 16,1 C 14,4 C 78 % 0 lf 1005,9 hPa 0,0 l/m 0 min 0 min 19 W/m 20,9 km/h (4 Bft) 95,74 %
22.05.2016 06:00 16,5 C 16,7 C 15,0 C 79 % 0 lf 1005,8 hPa 0,0 l/m 0 min 0 min 20 W/m 18,8 km/h (3 Bft) 93,62 %
22.05.2016 06:02 16,5 C 16,1 C 15,0 C 79 % 0 lf 1005,9 hPa 0,0 l/m 0 min 0 min 23 W/m 14,6 km/h (3 Bft) 93,62 %
22.05.2016 06:04 16,4 C 16,1 C 14,4 C 79 % 0 lf 1005,9 hPa 0,0 l/m 0 min 0 min 23 W/m 16,7 km/h (3 Bft) 93,62 %
22.05.2016 06:06 16,4 C 16,1 C 14,4 C 79 % 0 lf 1005,9 hPa 0,0 l/m 0 min 0 min 25 W/m 20,9 km/h (4 Bft) 95,74 %
22.05.2016 06:08 16,4 C 16,7 C 15,0 C 79 % 0 lf 1006,0 hPa 0,0 l/m 0 min 0 min 25 W/m 16,7 km/h (3 Bft) 95,74 %
22.05.2016 06:10 16,4 C 16,7 C 15,0 C 79 % 0 lf 1006,2 hPa 0,0 l/m 0 min 0 min 25 W/m 10,5 km/h (2 Bft) 95,74 %
22.05.2016 06:12 16,4 C 16,7 C 15,0 C 79 % 0 lf 1006,3 hPa 0,0 l/m 0 min 0 min 23 W/m 14,6 km/h (3 Bft) 91,49 %
22.05.2016 06:14 16,4 C 16,1 C 15,0 C 79 % 0 lf 1006,3 hPa 0,0 l/m 0 min 0 min 21 W/m 10,5 km/h (2 Bft) 95,74 %
22.05.2016 06:16 16,4 C 16,1 C 15,0 C 79 % 0 lf 1006,2 hPa 0,0 l/m 0 min 0 min 21 W/m 12,6 km/h (3 Bft) 93,48 %
22.05.2016 06:18 16,4 C 16,1 C 14,4 C 79 % 0 lf 1006,3 hPa 0,0 l/m 0 min 0 min 24 W/m 10,5 km/h (2 Bft) 95,74 %
22.05.2016 06:20 16,4 C 16,1 C 14,4 C 80 % 0 lf 1006,2 hPa 0,0 l/m 0 min 0 min 25 W/m 10,5 km/h (2 Bft) 93,62 %
22.05.2016 06:22 16,4 C 16,1 C 15,0 C 80 % 0 lf 1006,2 hPa 0,0 l/m 0 min 0 min 26 W/m 12,6 km/h (3 Bft) 95,74 %
22.05.2016 06:24 16,4 C 16,1 C 15,0 C 80 % 0 lf 1006,1 hPa 0,0 l/m 0 min 0 min 26 W/m 14,6 km/h (3 Bft) 95,74 %
22.05.2016 06:26 16,4 C 16,7 C 14,4 C 80 % 0 lf 1006,2 hPa 0,0 l/m 0 min 0 min 28 W/m 14,6 km/h (3 Bft) 93,62 %
22.05.2016 06:28 16,3 C 16,7 C 14,4 C 80 % 0 lf 1006,2 hPa 0,0 l/m 0 min 0 min 28 W/m 12,6 km/h (3 Bft) 91,30 %
22.05.2016 06:30 16,3 C 16,7 C 15,0 C 80 % 0 lf 1006,1 hPa 0,0 l/m 0 min 0 min 28 W/m 14,6 km/h (3 Bft) 95,74 %
22.05.2016 06:32 16,3 C 16,7 C 15,0 C 80 % 0 lf 1006,1 hPa 0,0 l/m 0 min 0 min 29 W/m 12,6 km/h (3 Bft) 95,74 %
22.05.2016 06:34 16,3 C 16,7 C 15,0 C 80 % 0 lf 1006,0 hPa 0,0 l/m 0 min 0 min 30 W/m 12,6 km/h (3 Bft) 95,74 %
22.05.2016 06:36 16,3 C 16,7 C 15,0 C 80 % 0 lf 1006,0 hPa 0,0 l/m 0 min 0 min 33 W/m 12,6 km/h (3 Bft) 93,62 %
22.05.2016 06:38 16,3 C 16,7 C 15,0 C 79 % 0 lf 1006,0 hPa 0,0 l/m 0 min 0 min 36 W/m 14,6 km/h (3 Bft) 95,74 %
22.05.2016 06:40 16,3 C 16,7 C 15,0 C 79 % 0 lf 1005,9 hPa 0,0 l/m 0 min 0 min 38 W/m 12,6 km/h (3 Bft) 93,48 %
22.05.2016 06:42 16,3 C 16,7 C 15,0 C 79 % 0 lf 1006,0 hPa 0,0 l/m 0 min 0 min 40 W/m 10,5 km/h (2 Bft) 97,87 %
22.05.2016 06:44 16,3 C 16,7 C 15,0 C 80 % 0 lf 1006,0 hPa 0,0 l/m 0 min 0 min 46 W/m 10,5 km/h (2 Bft) 93,62 %
22.05.2016 06:46 16,4 C 16,7 C 15,0 C 80 % 0 lf 1006,0 hPa 0,0 l/m 0 min 0 min 52 W/m 12,6 km/h (3 Bft) 97,87 %
22.05.2016 06:48 16,4 C 16,7 C 15,0 C 80 % 0 lf 1005,9 hPa 0,0 l/m 0 min 0 min 58 W/m 10,5 km/h (2 Bft) 95,74 %
22.05.2016 06:50 16,4 C 16,7 C 15,0 C 80 % 0 lf 1005,8 hPa 0,0 l/m 0 min 0 min 65 W/m 12,6 km/h (3 Bft) 100,00 %
22.05.2016 06:52 16,4 C 16,7 C 15,0 C 80 % 0 lf 1005,9 hPa 0,0 l/m 0 min 0 min 75 W/m 14,6 km/h (3 Bft) 95,65 %
22.05.2016 06:54 16,4 C 17,2 C 15,0 C 80 % 0 lf 1005,9 hPa 0,0 l/m 2 min 0 min 87 W/m 12,6 km/h (3 Bft) 100,00 %
22.05.2016 06:56 16,4 C 17,2 C 15,0 C 80 % 0 lf 1005,9 hPa 0,0 l/m 2 min 0 min 104 W/m 12,6 km/h (3 Bft) 97,87 %
22.05.2016 06:58 16,4 C 17,2 C 15,6 C 80 % 0 lf 1005,9 hPa 0,0 l/m 2 min 0 min 143 W/m 12,6 km/h (3 Bft) 97,87 %
22.05.2016 07:00 16,4 C 17,2 C 15,6 C 80 % 0 lf 1005,9 hPa 0,0 l/m 2 min 0 min 135 W/m 14,6 km/h (3 Bft) 91,49 %
22.05.2016 07:02 16,5 C 17,2 C 15,6 C 80 % 0 lf 1005,8 hPa 0,0 l/m 2 min 0 min 129 W/m 12,6 km/h (3 Bft) 100,00 %
22.05.2016 07:04 16,6 C 17,8 C 15,6 C 80 % 0 lf 1005,8 hPa 0,0 l/m 2 min 0 min 150 W/m 16,7 km/h (3 Bft) 100,00 %
22.05.2016 07:06 16,6 C 17,8 C 15,6 C 80 % 0 lf 1005,7 hPa 0,0 l/m 2 min 0 min 174 W/m 14,6 km/h (3 Bft) 95,74 %
22.05.2016 07:08 16,6 C 17,8 C 16,1 C 80 % 0 lf 1005,7 hPa 0,0 l/m 2 min 0 min 148 W/m 16,7 km/h (3 Bft) 95,74 %
22.05.2016 07:10 16,7 C 17,8 C 16,1 C 79 % 0 lf 1005,7 hPa 0,0 l/m 2 min 0 min 131 W/m 14,6 km/h (3 Bft) 95,74 %
22.05.2016 07:12 16,7 C 17,8 C 16,1 C 79 % 0 lf 1005,7 hPa 0,0 l/m 2 min 0 min 133 W/m 14,6 km/h (3 Bft) 97,87 %
22.05.2016 07:14 16,8 C 17,8 C 16,1 C 79 % 0 lf 1005,7 hPa 0,0 l/m 2 min 0 min 166 W/m 14,6 km/h (3 Bft) 97,83 %
22.05.2016 07:16 16,8 C 17,8 C 16,1 C 79 % 0 lf 1005,6 hPa 0,0 l/m 2 min 0 min 167 W/m 16,7 km/h (3 Bft) 95,74 %
22.05.2016 07:18 16,9 C 17,8 C 16,1 C 79 % 0 lf 1005,7 hPa 0,0 l/m 2 min 0 min 145 W/m 20,9 km/h (4 Bft) 100,00 %
22.05.2016 07:20 16,9 C 17,8 C 16,7 C 79 % 0 lf 1005,7 hPa 0,0 l/m 2 min 0 min 135 W/m 12,6 km/h (3 Bft) 100,00 %
22.05.2016 07:22 17,0 C 18,3 C 16,7 C 79 % 0 lf 1005,7 hPa 0,0 l/m 2 min 0 min 129 W/m 18,8 km/h (3 Bft) 97,87 %
22.05.2016 07:24 17,1 C 17,8 C 16,7 C 79 % 0 lf 1005,7 hPa 0,0 l/m 0 min 0 min 122 W/m 20,9 km/h (4 Bft) 97,87 %
22.05.2016 07:26 17,1 C 17,8 C 16,7 C 78 % 0 lf 1005,7 hPa 0,0 l/m 0 min 0 min 121 W/m 18,8 km/h (3 Bft) 95,65 %
22.05.2016 07:28 17,2 C 17,8 C 16,7 C 78 % 0 lf 1005,7 hPa 0,0 l/m 0 min 0 min 124 W/m 16,7 km/h (3 Bft) 95,74 %
22.05.2016 07:30 17,2 C 18,3 C 16,7 C 78 % 0 lf 1005,7 hPa 0,0 l/m 0 min 0 min 128 W/m 14,6 km/h (3 Bft) 97,87 %
22.05.2016 07:32 17,2 C 18,3 C 16,7 C 78 % 0 lf 1005,7 hPa 0,0 l/m 0 min 0 min 132 W/m 16,7 km/h (3 Bft) 95,74 %
22.05.2016 07:34 17,3 C 18,3 C 16,7 C 78 % 0 lf 1005,7 hPa 0,0 l/m 2 min 0 min 152 W/m 14,6 km/h (3 Bft) 95,74 %
22.05.2016 07:36 17,3 C 18,3 C 16,7 C 78 % 0 lf 1005,7 hPa 0,0 l/m 2 min 0 min 173 W/m 12,6 km/h (3 Bft) 97,87 %
22.05.2016 07:38 17,4 C 18,3 C 16,7 C 78 % 0 lf 1005,7 hPa 0,0 l/m 2 min 0 min 201 W/m 14,6 km/h (3 Bft) 93,48 %
22.05.2016 07:40 17,4 C 18,3 C 16,7 C 78 % 0 lf 1005,7 hPa 0,0 l/m 2 min 0 min 196 W/m 18,8 km/h (3 Bft) 97,87 %
22.05.2016 07:42 17,4 C 18,3 C 16,7 C 78 % 0 lf 1005,7 hPa 0,0 l/m 2 min 0 min 184 W/m 16,7 km/h (3 Bft) 95,74 %
22.05.2016 07:44 17,5 C 18,3 C 16,7 C 78 % 0 lf 1005,6 hPa 0,0 l/m 2 min 0 min 183 W/m 20,9 km/h (4 Bft) 100,00 %
22.05.2016 07:46 17,5 C 18,3 C 16,7 C 77 % 0 lf 1005,6 hPa 0,0 l/m 0 min 0 min 132 W/m 16,7 km/h (3 Bft) 97,87 %
22.05.2016 07:48 17,6 C 18,3 C 16,7 C 77 % 0 lf 1005,6 hPa 0,0 l/m 0 min 0 min 112 W/m 12,6 km/h (3 Bft) 93,62 %
22.05.2016 07:50 17,6 C 18,3 C 16,7 C 77 % 0 lf 1005,6 hPa 0,0 l/m 0 min 0 min 106 W/m 12,6 km/h (3 Bft) 93,48 %
22.05.2016 07:52 17,6 C 18,3 C 16,7 C 78 % 0 lf 1005,6 hPa 0,0 l/m 0 min 0 min 103 W/m 14,6 km/h (3 Bft) 95,74 %
22.05.2016 07:54 17,6 C 18,3 C 16,7 C 77 % 0 lf 1005,5 hPa 0,0 l/m 0 min 0 min 109 W/m 14,6 km/h (3 Bft) 93,62 %
22.05.2016 07:56 17,7 C 18,3 C 16,7 C 78 % 0 lf 1005,5 hPa 0,0 l/m 0 min 0 min 119 W/m 18,8 km/h (3 Bft) 95,74 %
22.05.2016 07:58 17,7 C 18,3 C 16,7 C 78 % 0 lf 1005,3 hPa 0,0 l/m 0 min 0 min 132 W/m 16,7 km/h (3 Bft) 93,62 %
22.05.2016 08:00 17,7 C 18,9 C 16,7 C 78 % 0 lf 1005,5 hPa 0,0 l/m 0 min 0 min 153 W/m 18,8 km/h (3 Bft) 93,62 %
22.05.2016 08:02 17,7 C 18,9 C 17,2 C 77 % 0 lf 1005,5 hPa 0,0 l/m 2 min 0 min 175 W/m 16,7 km/h (3 Bft) 93,48 %
22.05.2016 08:04 17,8 C 18,9 C 17,2 C 77 % 0 lf 1005,5 hPa 0,0 l/m 2 min 0 min 186 W/m 16,7 km/h (3 Bft) 91,49 %
22.05.2016 08:06 17,8 C 18,9 C 17,2 C 77 % 0 lf 1005,6 hPa 0,0 l/m 2 min 0 min 221 W/m 18,8 km/h (3 Bft) 91,49 %
22.05.2016 08:08 17,8 C 18,9 C 17,2 C 78 % 0 lf 1005,6 hPa 0,0 l/m 2 min 0 min 179 W/m 18,8 km/h (3 Bft) 87,23 %
22.05.2016 08:10 17,9 C 18,9 C 17,2 C 77 % 0 lf 1005,5 hPa 0,0 l/m 0 min 0 min 180 W/m 18,8 km/h (3 Bft) 93,62 %
22.05.2016 08:12 17,9 C 18,9 C 17,2 C 77 % 0 lf 1005,5 hPa 0,0 l/m 2 min 0 min 191 W/m 23,0 km/h (4 Bft) 93,62 %
22.05.2016 08:14 17,9 C 19,4 C 17,8 C 77 % 0 lf 1005,6 hPa 0,0 l/m 2 min 0 min 212 W/m 20,9 km/h (4 Bft) 91,43 %
22.05.2016 08:16 18,0 C 19,4 C 17,8 C 77 % 0 lf 1005,5 hPa 0,0 l/m 2 min 0 min 248 W/m 14,6 km/h (3 Bft) 92,73 %
22.05.2016 08:18 18,1 C 19,4 C 17,8 C 77 % 0 lf 1005,6 hPa 0,0 l/m 2 min 0 min 322 W/m 18,8 km/h (3 Bft) 91,49 %
22.05.2016 08:20 18,1 C 19,4 C 17,8 C 77 % 0 lf 1005,6 hPa 0,0 l/m 2 min 0 min 375 W/m 16,7 km/h (3 Bft) 95,74 %
22.05.2016 08:22 18,2 C 19,4 C 17,8 C 77 % 0 lf 1005,6 hPa 0,0 l/m 2 min 0 min 379 W/m 25,1 km/h (4 Bft) 95,74 %
22.05.2016 08:24 18,2 C 20,0 C 17,8 C 77 % 0 lf 1005,6 hPa 0,0 l/m 2 min 0 min 370 W/m 18,8 km/h (3 Bft) 95,74 %
22.05.2016 08:26 18,3 C 20,0 C 18,3 C 77 % 0 lf 1005,6 hPa 0,0 l/m 2 min 0 min 365 W/m 23,0 km/h (4 Bft) 93,48 %
22.05.2016 08:28 18,4 C 20,6 C 18,3 C 77 % 0 lf 1005,5 hPa 0,0 l/m 2 min 0 min 269 W/m 12,6 km/h (3 Bft) 93,62 %
22.05.2016 08:30 18,4 C 20,6 C 18,3 C 77 % 0 lf 1005,5 hPa 0,0 l/m 2 min 0 min 271 W/m 18,8 km/h (3 Bft) 93,62 %
22.05.2016 08:32 18,6 C 20,6 C 18,3 C 77 % 0 lf 1005,6 hPa 0,0 l/m 2 min 0 min 321 W/m 23,0 km/h (4 Bft) 95,74 %
22.05.2016 08:34 18,6 C 20,0 C 18,3 C 76 % 0 lf 1005,6 hPa 0,0 l/m 0 min 0 min 205 W/m 16,7 km/h (3 Bft) 95,74 %
22.05.2016 08:36 18,7 C 20,6 C 18,3 C 76 % 0 lf 1005,6 hPa 0,0 l/m 0 min 0 min 192 W/m 16,7 km/h (3 Bft) 95,74 %
22.05.2016 08:38 18,7 C 20,6 C 18,3 C 76 % 0 lf 1005,6 hPa 0,0 l/m 2 min 0 min 353 W/m 18,8 km/h (3 Bft) 97,83 %
22.05.2016 08:40 18,8 C 21,1 C 18,3 C 76 % 0 lf 1005,5 hPa 0,0 l/m 2 min 0 min 389 W/m 14,6 km/h (3 Bft) 97,87 %
22.05.2016 08:42 18,8 C 20,0 C 18,3 C 76 % 0 lf 1005,6 hPa 0,0 l/m 2 min 0 min 237 W/m 14,6 km/h (3 Bft) 95,74 %
22.05.2016 08:44 18,9 C 20,0 C 18,3 C 76 % 0 lf 1005,6 hPa 0,0 l/m 2 min 0 min 271 W/m 16,7 km/h (3 Bft) 95,74 %
22.05.2016 08:46 18,9 C 20,0 C 18,3 C 76 % 0 lf 1005,7 hPa 0,0 l/m 2 min 0 min 258 W/m 12,6 km/h (3 Bft) 100,00 %
22.05.2016 08:48 19,0 C 20,0 C 18,3 C 76 % 0 lf 1005,6 hPa 0,0 l/m 0 min 0 min 225 W/m 10,5 km/h (2 Bft) 97,87 %
22.05.2016 08:50 19,1 C 20,0 C 18,3 C 76 % 0 lf 1005,6 hPa 0,0 l/m 0 min 0 min 213 W/m 14,6 km/h (3 Bft) 100,00 %
22.05.2016 08:52 19,1 C 20,0 C 18,3 C 76 % 0 lf 1005,6 hPa 0,0 l/m 0 min 0 min 211 W/m 10,5 km/h (2 Bft) 100,00 %
22.05.2016 08:54 19,1 C 20,6 C 18,9 C 76 % 0 lf 1005,6 hPa 0,0 l/m 0 min 0 min 214 W/m 8,4 km/h (2 Bft) 97,87 %
22.05.2016 08:56 19,1 C 20,0 C 18,9 C 76 % 0 lf 1005,7 hPa 0,0 l/m 0 min 0 min 213 W/m 10,5 km/h (2 Bft) 100,00 %
22.05.2016 08:58 19,2 C 20,0 C 18,9 C 76 % 0 lf 1005,7 hPa 0,0 l/m 0 min 0 min 211 W/m 8,4 km/h (2 Bft) 97,87 %
22.05.2016 09:00 19,2 C 20,0 C 18,9 C 76 % 0 lf 1005,8 hPa 0,0 l/m 0 min 0 min 213 W/m 10,5 km/h (2 Bft) 93,62 %
22.05.2016 09:02 19,2 C 20,0 C 18,9 C 76 % 0 lf 1005,8 hPa 0,0 l/m 0 min 0 min 203 W/m 12,6 km/h (3 Bft) 100,00 %
22.05.2016 09:04 19,2 C 20,6 C 18,9 C 76 % 0 lf 1005,8 hPa 0,0 l/m 0 min 0 min 210 W/m 8,4 km/h (2 Bft) 100,00 %
22.05.2016 09:06 19,2 C 21,1 C 18,9 C 76 % 0 lf 1005,8 hPa 0,0 l/m 0 min 0 min 243 W/m 10,5 km/h (2 Bft) 100,00 %
22.05.2016 09:08 19,3 C 20,6 C 18,9 C 77 % 0 lf 1005,8 hPa 0,0 l/m 0 min 0 min 217 W/m 10,5 km/h (2 Bft) 100,00 %
22.05.2016 09:10 19,3 C 20,6 C 18,9 C 76 % 0 lf 1005,8 hPa 0,0 l/m 0 min 0 min 224 W/m 6,3 km/h (2 Bft) 97,87 %
22.05.2016 09:12 19,3 C 20,6 C 18,9 C 76 % 0 lf 1005,8 hPa 0,0 l/m 0 min 0 min 231 W/m 8,4 km/h (2 Bft) 95,65 %
22.05.2016 09:14 19,3 C 21,1 C 18,9 C 76 % 0 lf 1005,8 hPa 0,0 l/m 0 min 0 min 250 W/m 10,5 km/h (2 Bft) 95,74 %
22.05.2016 09:16 19,3 C 21,1 C 18,9 C 76 % 0 lf 1005,8 hPa 0,0 l/m 2 min 0 min 264 W/m 10,5 km/h (2 Bft) 95,74 %
22.05.2016 09:18 19,4 C 21,1 C 19,4 C 76 % 0 lf 1005,8 hPa 0,0 l/m 2 min 0 min 283 W/m 10,5 km/h (2 Bft) 95,74 %
22.05.2016 09:20 19,4 C 21,7 C 19,4 C 76 % 0 lf 1005,8 hPa 0,0 l/m 2 min 0 min 353 W/m 10,5 km/h (2 Bft) 97,87 %
22.05.2016 09:22 19,4 C 22,2 C 19,4 C 76 % 0 lf 1005,8 hPa 0,0 l/m 2 min 0 min 405 W/m 10,5 km/h (2 Bft) 95,74 %
22.05.2016 09:24 19,5 C 22,2 C 20,0 C 76 % 0 lf 1005,9 hPa 0,0 l/m 2 min 0 min 358 W/m 12,6 km/h (3 Bft) 97,87 %
22.05.2016 09:26 19,6 C 21,7 C 20,0 C 76 % 0 lf 1005,9 hPa 0,0 l/m 2 min 0 min 303 W/m 12,6 km/h (3 Bft) 95,65 %
22.05.2016 09:28 19,7 C 21,7 C 20,0 C 76 % 0 lf 1005,9 hPa 0,0 l/m 0 min 0 min 269 W/m 12,6 km/h (3 Bft) 95,74 %
22.05.2016 09:30 19,7 C 21,7 C 19,4 C 75 % 0 lf 1005,8 hPa 0,0 l/m 2 min 0 min 319 W/m 14,6 km/h (3 Bft) 95,74 %
22.05.2016 09:32 19,8 C 21,7 C 20,0 C 74 % 0 lf 1005,8 hPa 0,0 l/m 2 min 0 min 319 W/m 14,6 km/h (3 Bft) 97,87 %
22.05.2016 09:34 19,8 C 21,7 C 20,0 C 74 % 0 lf 1005,8 hPa 0,0 l/m 2 min 0 min 299 W/m 18,8 km/h (3 Bft) 91,49 %
22.05.2016 09:36 19,9 C 22,2 C 20,0 C 74 % 0 lf 1005,8 hPa 0,0 l/m 2 min 0 min 315 W/m 16,7 km/h (3 Bft) 97,83 %
22.05.2016 09:38 19,9 C 22,2 C 20,0 C 74 % 0 lf 1005,8 hPa 0,0 l/m 2 min 0 min 304 W/m 12,6 km/h (3 Bft) 97,87 %
22.05.2016 09:40 20,0 C 22,2 C 20,6 C 74 % 0 lf 1005,6 hPa 0,0 l/m 2 min 0 min 360 W/m 12,6 km/h (3 Bft) 95,74 %
22.05.2016 09:42 20,1 C 24,4 C 20,6 C 73 % 0 lf 1005,6 hPa 0,0 l/m 2 min 0 min 443 W/m 12,6 km/h (3 Bft) 97,87 %
22.05.2016 09:44 20,2 C 25,6 C 21,1 C 74 % 0 lf 1005,6 hPa 0,0 l/m 2 min 0 min 559 W/m 12,6 km/h (3 Bft) 95,74 %
22.05.2016 09:46 20,3 C 25,6 C 21,1 C 74 % 0 lf 1005,6 hPa 0,0 l/m 2 min 0 min 532 W/m 12,6 km/h (3 Bft) 97,87 %
22.05.2016 09:48 20,4 C 27,2 C 21,7 C 74 % 0 lf 1005,7 hPa 0,0 l/m 2 min 0 min 601 W/m 14,6 km/h (3 Bft) 97,83 %
22.05.2016 09:50 20,6 C 27,8 C 21,7 C 74 % 0 lf 1005,7 hPa 0,0 l/m 2 min 0 min 572 W/m 14,6 km/h (3 Bft) 93,62 %
22.05.2016 09:52 20,7 C 25,6 C 22,2 C 72 % 0 lf 1005,8 hPa 0,0 l/m 2 min 0 min 453 W/m 16,7 km/h (3 Bft) 97,87 %
22.05.2016 09:54 20,9 C 24,4 C 21,7 C 71 % 0 lf 1005,8 hPa 0,0 l/m 2 min 0 min 384 W/m 14,6 km/h (3 Bft) 97,87 %
22.05.2016 09:56 20,9 C 23,3 C 21,7 C 71 % 0 lf 1005,8 hPa 0,0 l/m 0 min 0 min 293 W/m 14,6 km/h (3 Bft) 95,74 %
22.05.2016 09:58 21,0 C 22,8 C 21,1 C 71 % 0 lf 1005,8 hPa 0,0 l/m 0 min 0 min 233 W/m 12,6 km/h (3 Bft) 95,74 %
22.05.2016 10:00 21,1 C 22,8 C 21,1 C 70 % 0 lf 1005,9 hPa 0,0 l/m 0 min 0 min 205 W/m 18,8 km/h (3 Bft) 95,65 %
22.05.2016 10:02 21,1 C 22,8 C 20,6 C 70 % 0 lf 1006,0 hPa 0,0 l/m 0 min 0 min 193 W/m 10,5 km/h (2 Bft) 93,62 %
22.05.2016 10:04 21,2 C 22,8 C 20,6 C 70 % 0 lf 1006,1 hPa 0,0 l/m 0 min 0 min 181 W/m 10,5 km/h (2 Bft) 97,87 %
22.05.2016 10:06 21,2 C 22,2 C 20,0 C 70 % 0 lf 1006,1 hPa 0,0 l/m 0 min 0 min 171 W/m 12,6 km/h (3 Bft) 91,49 %
22.05.2016 10:08 21,2 C 22,2 C 20,0 C 70 % 0 lf 1006,0 hPa 0,0 l/m 0 min 0 min 170 W/m 18,8 km/h (3 Bft) 89,36 %
22.05.2016 10:10 21,2 C 21,7 C 20,0 C 69 % 0 lf 1006,2 hPa 0,0 l/m 0 min 0 min 176 W/m 23,0 km/h (4 Bft) 97,87 %
22.05.2016 10:12 21,1 C 21,7 C 20,0 C 69 % 0 lf 1006,2 hPa 0,0 l/m 0 min 0 min 179 W/m 16,7 km/h (3 Bft) 95,74 %
22.05.2016 10:14 21,1 C 21,7 C 19,4 C 69 % 0 lf 1006,2 hPa 0,0 l/m 0 min 0 min 180 W/m 20,9 km/h (4 Bft) 97,83 %
22.05.2016 10:16 21,1 C 21,7 C 19,4 C 69 % 0 lf 1006,2 hPa 0,0 l/m 0 min 0 min 189 W/m 23,0 km/h (4 Bft) 97,87 %
22.05.2016 10:18 21,1 C 21,7 C 19,4 C 69 % 0 lf 1006,3 hPa 0,0 l/m 0 min 0 min 208 W/m 25,1 km/h (4 Bft) 97,87 %
22.05.2016 10:20 21,0 C 21,7 C 20,0 C 69 % 0 lf 1006,3 hPa 0,0 l/m 0 min 0 min 231 W/m 20,9 km/h (4 Bft) 91,49 %
22.05.2016 10:22 21,0 C 21,7 C 20,0 C 69 % 0 lf 1006,3 hPa 0,0 l/m 0 min 0 min 259 W/m 18,8 km/h (3 Bft) 95,74 %
22.05.2016 10:24 21,0 C 22,2 C 20,0 C 69 % 0 lf 1006,3 hPa 0,0 l/m 0 min 0 min 276 W/m 16,7 km/h (3 Bft) 93,48 %
22.05.2016 10:26 21,0 C 22,8 C 20,6 C 70 % 0 lf 1006,3 hPa 0,0 l/m 0 min 0 min 289 W/m 14,6 km/h (3 Bft) 97,87 %
22.05.2016 10:28 21,0 C 22,8 C 20,6 C 70 % 0 lf 1006,1 hPa 0,0 l/m 0 min 0 min 299 W/m 23,0 km/h (4 Bft) 97,87 %
22.05.2016 10:30 21,0 C 22,2 C 20,6 C 69 % 0 lf 1006,2 hPa 0,0 l/m 0 min 0 min 296 W/m 25,1 km/h (4 Bft) 91,49 %
22.05.2016 10:32 21,0 C 22,8 C 20,6 C 69 % 0 lf 1006,2 hPa 0,0 l/m 0 min 0 min 289 W/m 27,2 km/h (4 Bft) 95,74 %
22.05.2016 10:34 21,0 C 22,8 C 20,6 C 69 % 0 lf 1006,2 hPa 0,0 l/m 0 min 0 min 288 W/m 20,9 km/h (4 Bft) 95,74 %
22.05.2016 10:36 21,0 C 22,8 C 20,6 C 69 % 0 lf 1006,2 hPa 0,0 l/m 0 min 0 min 293 W/m 16,7 km/h (3 Bft) 95,65 %
22.05.2016 10:38 21,0 C 22,8 C 20,6 C 69 % 0 lf 1006,2 hPa 0,0 l/m 0 min 0 min 303 W/m 16,7 km/h (3 Bft) 91,49 %
22.05.2016 10:40 21,1 C 22,2 C 20,6 C 69 % 0 lf 1006,2 hPa 0,0 l/m 0 min 0 min 304 W/m 27,2 km/h (4 Bft) 93,62 %
22.05.2016 10:42 21,1 C 22,2 C 20,6 C 69 % 0 lf 1006,2 hPa 0,0 l/m 0 min 0 min 294 W/m 23,0 km/h (4 Bft) 87,23 %
22.05.2016 10:44 21,1 C 22,2 C 20,6 C 69 % 0 lf 1006,3 hPa 0,0 l/m 0 min 0 min 282 W/m 18,8 km/h (3 Bft) 95,74 %
22.05.2016 10:46 21,1 C 22,2 C 20,6 C 69 % 0 lf 1006,3 hPa 0,0 l/m 0 min 0 min 275 W/m 18,8 km/h (3 Bft) 93,48 %
22.05.2016 10:48 21,1 C 22,2 C 20,6 C 69 % 0 lf 1006,2 hPa 0,0 l/m 0 min 0 min 269 W/m 29,3 km/h (5 Bft) 95,74 %
22.05.2016 10:50 21,0 C 22,2 C 20,0 C 68 % 0 lf 1006,3 hPa 0,0 l/m 0 min 0 min 263 W/m 29,3 km/h (5 Bft) 95,74 %
22.05.2016 10:52 21,0 C 22,2 C 20,0 C 68 % 0 lf 1006,3 hPa 0,0 l/m 0 min 0 min 260 W/m 25,1 km/h (4 Bft) 91,49 %
22.05.2016 10:54 21,0 C 22,2 C 20,6 C 68 % 0 lf 1006,3 hPa 0,0 l/m 0 min 0 min 257 W/m 23,0 km/h (4 Bft) 95,74 %
22.05.2016 10:56 21,0 C 22,2 C 20,6 C 69 % 0 lf 1006,3 hPa 0,0 l/m 0 min 0 min 239 W/m 14,6 km/h (3 Bft) 95,74 %
22.05.2016 10:58 21,0 C 22,2 C 20,0 C 69 % 0 lf 1006,4 hPa 0,0 l/m 0 min 0 min 224 W/m 20,9 km/h (4 Bft) 93,48 %
22.05.2016 11:00 21,0 C 22,2 C 20,0 C 70 % 0 lf 1006,5 hPa 0,0 l/m 0 min 0 min 226 W/m 14,6 km/h (3 Bft) 89,36 %
22.05.2016 11:02 21,0 C 21,7 C 20,0 C 69 % 0 lf 1006,4 hPa 0,0 l/m 0 min 0 min 234 W/m 27,2 km/h (4 Bft) 95,74 %
22.05.2016 11:04 21,0 C 21,7 C 20,0 C 69 % 0 lf 1006,4 hPa 0,0 l/m 0 min 0 min 236 W/m 27,2 km/h (4 Bft) 91,49 %
22.05.2016 11:06 21,0 C 22,2 C 20,0 C 70 % 0 lf 1006,4 hPa 0,0 l/m 0 min 2 min 235 W/m 18,8 km/h (3 Bft) 95,74 %
22.05.2016 11:08 21,0 C 22,2 C 20,0 C 70 % 0 lf 1006,4 hPa 0,0 l/m 0 min 0 min 231 W/m 16,7 km/h (3 Bft) 93,62 %
22.05.2016 11:10 21,0 C 22,2 C 20,6 C 70 % 0 lf 1006,4 hPa 0,0 l/m 0 min 0 min 228 W/m 23,0 km/h (4 Bft) 95,65 %
22.05.2016 11:12 21,0 C 22,2 C 20,0 C 70 % 0 lf 1006,4 hPa 0,0 l/m 0 min 0 min 212 W/m 18,8 km/h (3 Bft) 95,74 %
22.05.2016 11:14 20,9 C 22,2 C 20,0 C 70 % 0 lf 1006,5 hPa 0,0 l/m 0 min 0 min 209 W/m 20,9 km/h (4 Bft) 93,62 %
22.05.2016 11:16 20,9 C 21,7 C 20,0 C 70 % 0 lf 1006,4 hPa 0,0 l/m 0 min 0 min 237 W/m 29,3 km/h (5 Bft) 87,23 %
22.05.2016 11:18 20,9 C 22,2 C 20,0 C 70 % 0 lf 1006,5 hPa 0,0 l/m 0 min 0 min 266 W/m 20,9 km/h (4 Bft) 95,74 %
22.05.2016 11:20 20,9 C 22,2 C 20,0 C 70 % 1 lf 1006,6 hPa 0,0 l/m 0 min 0 min 288 W/m 29,3 km/h (5 Bft) 93,62 %
22.05.2016 11:22 20,9 C 21,7 C 19,4 C 70 % 0 lf 1006,6 hPa 0,0 l/m 0 min 2 min 308 W/m 29,3 km/h (5 Bft) 97,83 %
22.05.2016 11:24 20,9 C 22,2 C 20,0 C 71 % 0 lf 1006,6 hPa 0,0 l/m 0 min 0 min 365 W/m 29,3 km/h (5 Bft) 97,87 %
22.05.2016 11:26 20,9 C 22,2 C 20,0 C 70 % 0 lf 1006,6 hPa 0,0 l/m 0 min 0 min 307 W/m 29,3 km/h (5 Bft) 95,74 %
22.05.2016 11:28 20,9 C 22,2 C 20,6 C 70 % 0 lf 1006,7 hPa 0,0 l/m 0 min 0 min 279 W/m 18,8 km/h (3 Bft) 97,87 %
22.05.2016 11:30 20,9 C 22,2 C 20,6 C 70 % 0 lf 1006,9 hPa 0,0 l/m 0 min 0 min 252 W/m 25,1 km/h (4 Bft) 97,87 %
22.05.2016 11:32 20,9 C 22,2 C 20,0 C 70 % 0 lf 1006,8 hPa 0,0 l/m 0 min 0 min 232 W/m 25,1 km/h (4 Bft) 95,74 %
22.05.2016 11:34 20,9 C 22,2 C 20,0 C 71 % 9 lf 1006,8 hPa 0,0 l/m 0 min 2 min 224 W/m 18,8 km/h (3 Bft) 97,83 %
22.05.2016 11:36 20,9 C 21,7 C 19,4 C 71 % 2 lf 1006,9 hPa 0,0 l/m 0 min 2 min 224 W/m 33,5 km/h (5 Bft) 97,87 %
22.05.2016 11:38 20,8 C 21,7 C 19,4 C 71 % 2 lf 1006,9 hPa 0,0 l/m 0 min 2 min 216 W/m 27,2 km/h (4 Bft) 97,87 %
22.05.2016 11:40 20,8 C 21,7 C 19,4 C 71 % 0 lf 1006,9 hPa 0,0 l/m 0 min 2 min 213 W/m 20,9 km/h (4 Bft) 100,00 %
22.05.2016 11:42 20,8 C 21,7 C 19,4 C 71 % 0 lf 1006,9 hPa 0,0 l/m 0 min 0 min 201 W/m 18,8 km/h (3 Bft) 100,00 %
22.05.2016 11:44 20,8 C 21,7 C 19,4 C 71 % 0 lf 1007,0 hPa 0,0 l/m 0 min 0 min 168 W/m 18,8 km/h (3 Bft) 100,00 %
22.05.2016 11:46 20,8 C 21,1 C 19,4 C 71 % 0 lf 1006,9 hPa 0,0 l/m 0 min 0 min 164 W/m 14,6 km/h (3 Bft) 100,00 %
22.05.2016 11:48 20,8 C 21,1 C 19,4 C 71 % 0 lf 1007,0 hPa 0,0 l/m 0 min 0 min 173 W/m 16,7 km/h (3 Bft) 95,74 %
22.05.2016 11:50 20,7 C 21,7 C 19,4 C 72 % 0 lf 1007,0 hPa 0,0 l/m 0 min 0 min 173 W/m 20,9 km/h (4 Bft) 100,00 %
22.05.2016 11:52 20,7 C 21,1 C 19,4 C 72 % 0 lf 1007,0 hPa 0,0 l/m 0 min 0 min 160 W/m 16,7 km/h (3 Bft) 100,00 %
22.05.2016 11:54 20,7 C 21,1 C 19,4 C 72 % 0 lf 1007,0 hPa 0,0 l/m 0 min 0 min 148 W/m 12,6 km/h (3 Bft) 100,00 %
22.05.2016 11:56 20,7 C 21,1 C 19,4 C 72 % 0 lf 1007,0 hPa 0,0 l/m 0 min 0 min 143 W/m 25,1 km/h (4 Bft) 100,00 %
22.05.2016 11:58 20,7 C 21,1 C 19,4 C 72 % 0 lf 1007,0 hPa 0,0 l/m 0 min 0 min 141 W/m 27,2 km/h (4 Bft) 95,65 %
22.05.2016 12:00 20,6 C 21,1 C 18,9 C 72 % 0 lf 1007,0 hPa 0,0 l/m 0 min 0 min 150 W/m 18,8 km/h (3 Bft) 95,74 %
22.05.2016 12:02 20,6 C 21,1 C 18,9 C 72 % 0 lf 1007,0 hPa 0,0 l/m 0 min 0 min 158 W/m 20,9 km/h (4 Bft) 97,87 %
22.05.2016 12:04 20,5 C 21,1 C 19,4 C 72 % 0 lf 1007,0 hPa 0,0 l/m 0 min 0 min 154 W/m 12,6 km/h (3 Bft) 97,87 %
22.05.2016 12:06 20,5 C 21,1 C 19,4 C 73 % 0 lf 1007,1 hPa 0,0 l/m 0 min 0 min 152 W/m 27,2 km/h (4 Bft) 95,74 %
22.05.2016 12:08 20,4 C 21,1 C 18,9 C 72 % 0 lf 1007,1 hPa 0,0 l/m 0 min 0 min 159 W/m 35,6 km/h (5 Bft) 100,00 %
22.05.2016 12:10 20,4 C 21,1 C 18,9 C 72 % 0 lf 1007,1 hPa 0,0 l/m 0 min 0 min 160 W/m 23,0 km/h (4 Bft) 97,87 %
22.05.2016 12:12 20,3 C 20,6 C 18,9 C 72 % 0 lf 1007,1 hPa 0,0 l/m 0 min 0 min 161 W/m 18,8 km/h (3 Bft) 95,74 %
22.05.2016 12:14 20,3 C 21,1 C 18,9 C 72 % 0 lf 1007,1 hPa 0,0 l/m 0 min 0 min 159 W/m 18,8 km/h (3 Bft) 95,74 %
22.05.2016 12:16 20,3 C 21,1 C 18,9 C 72 % 0 lf 1007,1 hPa 0,0 l/m 0 min 0 min 148 W/m 20,9 km/h (4 Bft) 97,87 %
22.05.2016 12:18 20,2 C 20,6 C 18,9 C 72 % 0 lf 1007,0 hPa 0,0 l/m 0 min 0 min 137 W/m 20,9 km/h (4 Bft) 95,74 %
22.05.2016 12:20 20,2 C 20,6 C 18,9 C 72 % 0 lf 1007,0 hPa 0,0 l/m 0 min 0 min 126 W/m 23,0 km/h (4 Bft) 97,83 %
22.05.2016 12:22 20,2 C 20,6 C 18,9 C 72 % 0 lf 1007,1 hPa 0,0 l/m 0 min 0 min 122 W/m 18,8 km/h (3 Bft) 95,74 %
22.05.2016 12:24 20,2 C 20,6 C 18,9 C 73 % 0 lf 1007,2 hPa 0,0 l/m 0 min 0 min 128 W/m 14,6 km/h (3 Bft) 93,62 %
22.05.2016 12:26 20,2 C 20,6 C 18,9 C 73 % 0 lf 1007,2 hPa 0,0 l/m 0 min 0 min 141 W/m 25,1 km/h (4 Bft) 97,87 %
22.05.2016 12:28 20,1 C 20,6 C 18,9 C 73 % 0 lf 1007,2 hPa 0,0 l/m 0 min 0 min 149 W/m 23,0 km/h (4 Bft) 95,74 %
22.05.2016 12:30 20,1 C 20,6 C 18,9 C 73 % 0 lf 1007,1 hPa 0,0 l/m 0 min 0 min 150 W/m 12,6 km/h (3 Bft) 93,62 %
22.05.2016 12:32 20,1 C 20,6 C 18,9 C 73 % 0 lf 1007,2 hPa 0,0 l/m 0 min 0 min 152 W/m 16,7 km/h (3 Bft) 100,00 %
22.05.2016 12:34 20,1 C 20,6 C 18,9 C 74 % 0 lf 1007,2 hPa 0,0 l/m 0 min 0 min 152 W/m 16,7 km/h (3 Bft) 95,74 %
22.05.2016 12:36 20,1 C 20,6 C 18,9 C 74 % 0 lf 1007,3 hPa 0,0 l/m 0 min 0 min 149 W/m 23,0 km/h (4 Bft) 95,74 %
22.05.2016 12:38 20,1 C 20,6 C 18,9 C 75 % 0 lf 1007,3 hPa 0,0 l/m 0 min 0 min 153 W/m 20,9 km/h (4 Bft) 95,74 %
22.05.2016 12:40 20,0 C 20,6 C 18,9 C 75 % 0 lf 1007,3 hPa 0,0 l/m 0 min 0 min 157 W/m 14,6 km/h (3 Bft) 95,74 %
22.05.2016 12:42 20,0 C 20,6 C 18,9 C 75 % 0 lf 1007,3 hPa 0,0 l/m 0 min 0 min 156 W/m 20,9 km/h (4 Bft) 91,49 %
22.05.2016 12:44 19,9 C 20,6 C 18,9 C 75 % 0 lf 1007,3 hPa 0,0 l/m 0 min 0 min 156 W/m 20,9 km/h (4 Bft) 93,48 %
22.05.2016 12:46 19,9 C 20,6 C 18,9 C 75 % 0 lf 1007,3 hPa 0,0 l/m 0 min 0 min 152 W/m 16,7 km/h (3 Bft) 95,74 %
22.05.2016 12:48 19,9 C 20,6 C 18,9 C 75 % 0 lf 1007,3 hPa 0,0 l/m 0 min 0 min 148 W/m 18,8 km/h (3 Bft) 95,74 %
22.05.2016 12:50 19,9 C 20,6 C 18,9 C 76 % 0 lf 1007,2 hPa 0,0 l/m 0 min 0 min 142 W/m 20,9 km/h (4 Bft) 93,62 %
22.05.2016 12:52 19,9 C 20,6 C 18,3 C 75 % 0 lf 1007,2 hPa 0,0 l/m 0 min 0 min 134 W/m 23,0 km/h (4 Bft) 97,87 %
22.05.2016 12:54 19,8 C 20,0 C 18,3 C 75 % 0 lf 1007,3 hPa 0,0 l/m 0 min 0 min 136 W/m 20,9 km/h (4 Bft) 97,87 %
22.05.2016 12:56 19,8 C 20,0 C 18,3 C 75 % 0 lf 1007,2 hPa 0,0 l/m 0 min 0 min 140 W/m 23,0 km/h (4 Bft) 97,83 %
22.05.2016 12:58 19,8 C 20,0 C 18,3 C 75 % 0 lf 1007,3 hPa 0,0 l/m 0 min 0 min 132 W/m 14,6 km/h (3 Bft) 97,87 %
22.05.2016 13:00 19,8 C 20,6 C 18,3 C 76 % 0 lf 1007,2 hPa 0,0 l/m 0 min 0 min 130 W/m 14,6 km/h (3 Bft) 97,87 %
22.05.2016 13:02 19,7 C 20,0 C 18,3 C 76 % 0 lf 1007,3 hPa 0,0 l/m 0 min 0 min 133 W/m 16,7 km/h (3 Bft) 97,87 %
22.05.2016 13:04 19,7 C 20,0 C 18,3 C 76 % 2 lf 1007,2 hPa 0,0 l/m 0 min 0 min 129 W/m 14,6 km/h (3 Bft) 95,74 %
22.05.2016 13:06 19,7 C 20,0 C 18,3 C 76 % 0 lf 1007,3 hPa 0,0 l/m 0 min 0 min 121 W/m 16,7 km/h (3 Bft) 95,74 %
22.05.2016 13:08 19,7 C 20,0 C 18,3 C 77 % 0 lf 1007,3 hPa 0,0 l/m 0 min 0 min 109 W/m 14,6 km/h (3 Bft) 97,83 %
22.05.2016 13:10 19,7 C 20,0 C 18,3 C 77 % 0 lf 1007,3 hPa 0,0 l/m 0 min 0 min 101 W/m 12,6 km/h (3 Bft) 95,74 %
22.05.2016 13:12 19,6 C 19,4 C 18,3 C 77 % 0 lf 1007,3 hPa 0,0 l/m 0 min 0 min 103 W/m 18,8 km/h (3 Bft) 97,87 %
22.05.2016 13:14 19,6 C 20,0 C 18,3 C 77 % 0 lf 1007,2 hPa 0,0 l/m 0 min 0 min 114 W/m 10,5 km/h (2 Bft) 95,74 %
22.05.2016 13:16 19,6 C 20,0 C 18,3 C 77 % 1 lf 1007,1 hPa 0,0 l/m 0 min 0 min 127 W/m 10,5 km/h (2 Bft) 95,74 %
22.05.2016 13:18 19,5 C 20,0 C 18,3 C 77 % 0 lf 1007,1 hPa 0,0 l/m 0 min 2 min 138 W/m 12,6 km/h (3 Bft) 95,65 %
22.05.2016 13:20 19,5 C 20,0 C 18,3 C 77 % 0 lf 1007,1 hPa 0,0 l/m 0 min 0 min 142 W/m 12,6 km/h (3 Bft) 93,62 %
22.05.2016 13:22 19,5 C 20,0 C 18,3 C 77 % 0 lf 1007,2 hPa 0,0 l/m 0 min 0 min 142 W/m 14,6 km/h (3 Bft) 91,49 %
22.05.2016 13:24 19,5 C 20,0 C 18,3 C 77 % 0 lf 1007,2 hPa 0,0 l/m 0 min 0 min 141 W/m 12,6 km/h (3 Bft) 95,74 %
22.05.2016 13:26 19,5 C 20,0 C 18,3 C 77 % 0 lf 1007,2 hPa 0,0 l/m 0 min 0 min 148 W/m 8,4 km/h (2 Bft) 93,62 %
22.05.2016 13:28 19,5 C 20,6 C 18,3 C 78 % 0 lf 1007,2 hPa 0,0 l/m 0 min 0 min 161 W/m 8,4 km/h (2 Bft) 93,62 %
22.05.2016 13:30 19,5 C 20,6 C 18,3 C 78 % 0 lf 1007,1 hPa 0,0 l/m 0 min 0 min 156 W/m 16,7 km/h (3 Bft) 93,48 %
22.05.2016 13:32 19,5 C 20,6 C 18,3 C 78 % 0 lf 1007,1 hPa 0,0 l/m 0 min 0 min 147 W/m 14,6 km/h (3 Bft) 93,62 %
22.05.2016 13:34 19,5 C 20,6 C 18,3 C 78 % 0 lf 1007,2 hPa 0,0 l/m 0 min 0 min 150 W/m 6,3 km/h (2 Bft) 93,62 %
22.05.2016 13:36 19,5 C 20,6 C 18,3 C 78 % 0 lf 1007,1 hPa 0,0 l/m 0 min 0 min 156 W/m 8,4 km/h (2 Bft) 95,74 %
22.05.2016 13:38 19,5 C 20,6 C 18,9 C 78 % 0 lf 1007,1 hPa 0,0 l/m 0 min 0 min 154 W/m 6,3 km/h (2 Bft) 93,62 %
22.05.2016 13:40 19,5 C 20,6 C 18,9 C 78 % 0 lf 1007,2 hPa 0,0 l/m 0 min 0 min 154 W/m 10,5 km/h (2 Bft) 93,62 %
22.05.2016 13:42 19,5 C 21,1 C 18,9 C 78 % 0 lf 1007,2 hPa 0,0 l/m 0 min 0 min 161 W/m 12,6 km/h (3 Bft) 97,83 %
22.05.2016 13:44 19,6 C 21,1 C 18,9 C 78 % 0 lf 1007,2 hPa 0,0 l/m 0 min 0 min 186 W/m 12,6 km/h (3 Bft) 95,74 %
22.05.2016 13:46 19,6 C 21,1 C 18,9 C 78 % 0 lf 1007,2 hPa 0,0 l/m 0 min 2 min 219 W/m 8,4 km/h (2 Bft) 93,62 %
22.05.2016 13:48 19,6 C 21,7 C 19,4 C 78 % 0 lf 1007,1 hPa 0,0 l/m 0 min 0 min 260 W/m 8,4 km/h (2 Bft) 91,49 %
22.05.2016 13:50 19,6 C 21,7 C 19,4 C 79 % 0 lf 1007,1 hPa 0,0 l/m 0 min 0 min 257 W/m 8,4 km/h (2 Bft) 91,49 %
22.05.2016 13:52 19,7 C 21,7 C 19,4 C 79 % 0 lf 1007,2 hPa 0,0 l/m 0 min 0 min 231 W/m 8,4 km/h (2 Bft) 95,74 %
22.05.2016 13:54 19,7 C 22,2 C 19,4 C 79 % 1 lf 1007,1 hPa 0,0 l/m 0 min 2 min 214 W/m 4,2 km/h (1 Bft) 93,48 %
22.05.2016 13:56 19,7 C 21,7 C 19,4 C 79 % 0 lf 1007,1 hPa 0,0 l/m 0 min 2 min 202 W/m 10,5 km/h (2 Bft) 93,62 %
22.05.2016 13:58 19,8 C 21,1 C 19,4 C 79 % 0 lf 1007,2 hPa 0,0 l/m 0 min 2 min 190 W/m 10,5 km/h (2 Bft) 93,62 %
22.05.2016 14:00 19,8 C 21,1 C 18,9 C 79 % 1 lf 1007,1 hPa 0,0 l/m 0 min 2 min 185 W/m 10,5 km/h (2 Bft) 95,74 %
22.05.2016 14:02 19,8 C 21,1 C 18,9 C 78 % 0 lf 1007,1 hPa 0,0 l/m 0 min 2 min 194 W/m 6,3 km/h (2 Bft) 95,74 %
22.05.2016 14:04 19,8 C 20,6 C 18,9 C 79 % 1 lf 1007,0 hPa 0,0 l/m 0 min 2 min 216 W/m 10,5 km/h (2 Bft) 97,87 %
22.05.2016 14:06 19,8 C 20,6 C 18,9 C 78 % 0 lf 1007,0 hPa 0,0 l/m 0 min 2 min 214 W/m 14,6 km/h (3 Bft) 93,48 %
22.05.2016 14:08 19,9 C 20,0 C 18,9 C 78 % 0 lf 1007,0 hPa 0,0 l/m 0 min 0 min 198 W/m 12,6 km/h (3 Bft) 95,74 %
22.05.2016 14:10 19,9 C 20,6 C 18,9 C 78 % 0 lf 1007,1 hPa 0,0 l/m 0 min 0 min 190 W/m 14,6 km/h (3 Bft) 95,74 %
22.05.2016 14:12 19,9 C 20,6 C 18,9 C 78 % 0 lf 1007,0 hPa 0,0 l/m 0 min 2 min 189 W/m 6,3 km/h (2 Bft) 93,62 %
22.05.2016 14:14 19,9 C 21,1 C 19,4 C 78 % 0 lf 1007,0 hPa 0,0 l/m 0 min 2 min 188 W/m 8,4 km/h (2 Bft) 97,87 %
22.05.2016 14:16 19,9 C 20,6 C 18,9 C 79 % 0 lf 1006,9 hPa 0,0 l/m 0 min 2 min 182 W/m 8,4 km/h (2 Bft) 93,62 %
22.05.2016 14:18 19,9 C 20,6 C 18,9 C 78 % 1 lf 1007,0 hPa 0,0 l/m 0 min 2 min 182 W/m 8,4 km/h (2 Bft) 95,65 %
22.05.2016 14:20 19,9 C 20,6 C 18,9 C 78 % 1 lf 1007,0 hPa 0,0 l/m 0 min 2 min 161 W/m 10,5 km/h (2 Bft) 93,62 %
22.05.2016 14:22 19,9 C 20,6 C 18,3 C 78 % 0 lf 1007,0 hPa 0,0 l/m 0 min 2 min 154 W/m 10,5 km/h (2 Bft) 91,49 %
22.05.2016 14:24 19,9 C 20,6 C 18,3 C 78 % 0 lf 1007,1 hPa 0,0 l/m 0 min 0 min 156 W/m 10,5 km/h (2 Bft) 95,74 %
22.05.2016 14:26 19,9 C 21,1 C 18,3 C 79 % 2 lf 1007,1 hPa 0,0 l/m 0 min 0 min 163 W/m 10,5 km/h (2 Bft) 91,49 %
22.05.2016 14:28 19,9 C 21,1 C 18,3 C 79 % 1 lf 1007,1 hPa 0,0 l/m 0 min 2 min 192 W/m 14,6 km/h (3 Bft) 95,74 %
22.05.2016 14:30 20,0 C 21,1 C 18,9 C 79 % 1 lf 1007,0 hPa 0,0 l/m 0 min 2 min 193 W/m 10,5 km/h (2 Bft) 93,48 %
22.05.2016 14:32 20,0 C 20,6 C 18,3 C 79 % 4 lf 1007,1 hPa 0,0 l/m 0 min 2 min 152 W/m 8,4 km/h (2 Bft) 93,62 %
22.05.2016 14:34 20,0 C 20,0 C 18,3 C 79 % 3 lf 1007,0 hPa 0,0 l/m 0 min 2 min 138 W/m 12,6 km/h (3 Bft) 91,49 %
22.05.2016 14:36 20,0 C 20,0 C 18,3 C 79 % 2 lf 1007,0 hPa 0,0 l/m 0 min 2 min 130 W/m 8,4 km/h (2 Bft) 95,74 %
22.05.2016 14:38 20,0 C 20,0 C 18,3 C 80 % 3 lf 1007,0 hPa 0,0 l/m 0 min 2 min 114 W/m 10,5 km/h (2 Bft) 97,87 %
22.05.2016 14:40 20,0 C 20,0 C 17,8 C 80 % 1 lf 1007,1 hPa 0,0 l/m 0 min 2 min 106 W/m 12,6 km/h (3 Bft) 95,74 %
22.05.2016 14:42 20,0 C 20,0 C 17,8 C 80 % 1 lf 1007,1 hPa 0,0 l/m 0 min 2 min 98 W/m 10,5 km/h (2 Bft) 97,96 %
22.05.2016 14:44 19,9 C 20,0 C 17,8 C 80 % 0 lf 1007,0 hPa 0,0 l/m 0 min 2 min 100 W/m 8,4 km/h (2 Bft) 97,87 %
22.05.2016 14:46 19,9 C 20,0 C 17,8 C 81 % 3 lf 1007,0 hPa 0,0 l/m 0 min 2 min 114 W/m 8,4 km/h (2 Bft) 95,74 %
22.05.2016 14:48 19,9 C 20,0 C 17,8 C 81 % 2 lf 1007,0 hPa 0,0 l/m 0 min 2 min 122 W/m 12,6 km/h (3 Bft) 95,74 %
22.05.2016 14:50 19,9 C 20,0 C 17,8 C 81 % 0 lf 1007,0 hPa 0,0 l/m 0 min 2 min 116 W/m 8,4 km/h (2 Bft) 97,87 %
22.05.2016 14:52 19,8 C 20,0 C 17,8 C 81 % 0 lf 1007,0 hPa 0,0 l/m 0 min 0 min 103 W/m 6,3 km/h (2 Bft) 100,00 %
22.05.2016 14:54 19,8 C 20,0 C 17,8 C 81 % 0 lf 1007,0 hPa 0,0 l/m 0 min 0 min 93 W/m 8,4 km/h (2 Bft) 100,00 %
22.05.2016 14:56 19,8 C 19,4 C 17,8 C 81 % 1 lf 1007,0 hPa 0,0 l/m 0 min 2 min 90 W/m 6,3 km/h (2 Bft) 93,62 %
22.05.2016 14:58 19,7 C 19,4 C 17,2 C 81 % 6 lf 1007,1 hPa 0,0 l/m 0 min 2 min 94 W/m 6,3 km/h (2 Bft) 97,87 %
22.05.2016 15:00 19,7 C 19,4 C 17,2 C 82 % 14 lf 1007,0 hPa 0,0 l/m 0 min 2 min 93 W/m 6,3 km/h (2 Bft) 94,29 %
22.05.2016 15:02 19,7 C 18,9 C 16,7 C 82 % 15 lf 1007,0 hPa 0,0 l/m 0 min 2 min 98 W/m 4,2 km/h (1 Bft) 98,21 %
22.05.2016 15:04 19,7 C 18,9 C 16,7 C 82 % 15 lf 1007,0 hPa 0,0 l/m 0 min 2 min 97 W/m 6,3 km/h (2 Bft) 100,00 %
22.05.2016 15:06 19,7 C 18,9 C 16,7 C 83 % 15 lf 1007,0 hPa 0,0 l/m 0 min 2 min 89 W/m 2,1 km/h (1 Bft) 100,00 %
22.05.2016 15:08 19,7 C 18,3 C 16,7 C 83 % 15 lf 1007,0 hPa 0,0 l/m 0 min 2 min 87 W/m 6,3 km/h (2 Bft) 97,87 %
22.05.2016 15:10 19,6 C 18,3 C 16,1 C 83 % 15 lf 1007,0 hPa 0,0 l/m 0 min 2 min 83 W/m 4,2 km/h (1 Bft) 100,00 %
22.05.2016 15:12 19,6 C 18,3 C 16,1 C 83 % 15 lf 1007,0 hPa 0,0 l/m 0 min 2 min 85 W/m 4,2 km/h (1 Bft) 95,74 %
22.05.2016 15:14 19,6 C 18,3 C 16,1 C 84 % 15 lf 1007,1 hPa 0,0 l/m 0 min 2 min 85 W/m 4,2 km/h (1 Bft) 93,62 %
22.05.2016 15:16 19,5 C 17,8 C 16,1 C 84 % 15 lf 1007,1 hPa 0,0 l/m 0 min 2 min 82 W/m 4,2 km/h (1 Bft) 100,00 %
22.05.2016 15:18 19,4 C 17,8 C 16,1 C 84 % 15 lf 1007,1 hPa 0,0 l/m 0 min 2 min 77 W/m 4,2 km/h (1 Bft) 97,87 %
22.05.2016 15:20 19,4 C 17,2 C 16,1 C 84 % 15 lf 1007,1 hPa 0,0 l/m 0 min 2 min 73 W/m 4,2 km/h (1 Bft) 95,74 %
22.05.2016 15:22 19,4 C 17,2 C 16,1 C 84 % 15 lf 1007,1 hPa 0,2 l/m 0 min 2 min 72 W/m 4,2 km/h (1 Bft) 100,00 %
22.05.2016 15:24 19,4 C 17,2 C 16,1 C 84 % 15 lf 1007,0 hPa 0,0 l/m 0 min 2 min 72 W/m 4,2 km/h (1 Bft) 100,00 %
22.05.2016 15:26 19,3 C 16,7 C 15,6 C 84 % 15 lf 1007,0 hPa 0,0 l/m 0 min 2 min 69 W/m 2,1 km/h (1 Bft) 100,00 %
22.05.2016 15:28 19,3 C 17,2 C 15,6 C 84 % 15 lf 1007,0 hPa 0,0 l/m 0 min 2 min 66 W/m 4,2 km/h (1 Bft) 97,83 %
22.05.2016 15:30 19,2 C 16,7 C 15,6 C 85 % 15 lf 1007,0 hPa 0,0 l/m 0 min 2 min 61 W/m 4,2 km/h (1 Bft) 89,36 %
22.05.2016 15:32 19,2 C 17,2 C 15,6 C 85 % 15 lf 1007,1 hPa 0,0 l/m 0 min 2 min 58 W/m 4,2 km/h (1 Bft) 100,00 %
22.05.2016 15:34 19,2 C 17,2 C 15,6 C 85 % 15 lf 1007,1 hPa 0,0 l/m 0 min 2 min 63 W/m 4,2 km/h (1 Bft) 100,00 %
22.05.2016 15:36 19,1 C 17,2 C 15,6 C 85 % 15 lf 1007,1 hPa 0,0 l/m 0 min 2 min 71 W/m 4,2 km/h (1 Bft) 97,87 %
22.05.2016 15:38 19,1 C 17,2 C 15,6 C 85 % 15 lf 1007,1 hPa 0,0 l/m 0 min 2 min 85 W/m 4,2 km/h (1 Bft) 97,87 %
22.05.2016 15:40 19,1 C 17,2 C 15,6 C 85 % 15 lf 1007,0 hPa 0,0 l/m 0 min 2 min 98 W/m 4,2 km/h (1 Bft) 100,00 %
22.05.2016 15:42 19,0 C 17,2 C 16,1 C 85 % 15 lf 1007,0 hPa 0,0 l/m 0 min 2 min 111 W/m 2,1 km/h (1 Bft) 93,62 %
22.05.2016 15:44 19,0 C 17,8 C 15,6 C 85 % 15 lf 1007,0 hPa 0,0 l/m 0 min 2 min 122 W/m 2,1 km/h (1 Bft) 100,00 %
22.05.2016 15:46 18,9 C 17,8 C 15,6 C 85 % 15 lf 1007,0 hPa 0,0 l/m 0 min 2 min 124 W/m 4,2 km/h (1 Bft) 100,00 %
22.05.2016 15:48 18,9 C 17,8 C 16,1 C 85 % 15 lf 1007,0 hPa 0,0 l/m 0 min 2 min 106 W/m 4,2 km/h (1 Bft) 100,00 %
22.05.2016 15:50 18,9 C 17,8 C 15,6 C 85 % 15 lf 1006,9 hPa 0,0 l/m 0 min 2 min 104 W/m 4,2 km/h (1 Bft) 97,87 %
22.05.2016 15:52 18,9 C 17,8 C 15,6 C 86 % 15 lf 1006,9 hPa 0,0 l/m 0 min 2 min 102 W/m 4,2 km/h (1 Bft) 95,74 %
22.05.2016 15:54 18,8 C 17,8 C 15,6 C 86 % 15 lf 1007,0 hPa 0,0 l/m 0 min 2 min 88 W/m 2,1 km/h (1 Bft) 100,00 %
22.05.2016 15:56 18,8 C 17,8 C 15,6 C 86 % 15 lf 1007,0 hPa 0,0 l/m 0 min 2 min 84 W/m 2,1 km/h (1 Bft) 100,00 %
22.05.2016 15:58 18,8 C 17,8 C 15,6 C 86 % 15 lf 1007,0 hPa 0,0 l/m 0 min 2 min 95 W/m 4,2 km/h (1 Bft) 100,00 %
22.05.2016 16:00 18,8 C 17,8 C 16,1 C 86 % 15 lf 1007,0 hPa 0,0 l/m 0 min 2 min 85 W/m 4,2 km/h (1 Bft) 100,00 %
22.05.2016 16:02 18,8 C 17,8 C 16,1 C 86 % 15 lf 1007,1 hPa 0,0 l/m 0 min 2 min 74 W/m 2,1 km/h (1 Bft) 95,74 %
22.05.2016 16:04 18,7 C 17,2 C 16,1 C 86 % 15 lf 1007,1 hPa 0,0 l/m 0 min 2 min 71 W/m 0,0 km/h (0 Bft) 93,48 %
22.05.2016 16:06 18,7 C 17,8 C 15,6 C 86 % 15 lf 1007,1 hPa 0,0 l/m 0 min 2 min 78 W/m 0,0 km/h (0 Bft) 97,87 %
22.05.2016 16:08 18,7 C 17,8 C 15,6 C 87 % 15 lf 1007,1 hPa 0,0 l/m 0 min 2 min 86 W/m 0,0 km/h (0 Bft) 93,62 %
22.05.2016 16:10 18,7 C 17,8 C 16,1 C 87 % 15 lf 1007,1 hPa 0,0 l/m 0 min 2 min 91 W/m 6,3 km/h (2 Bft) 95,74 %
22.05.2016 16:12 18,7 C 17,2 C 16,1 C 87 % 15 lf 1007,1 hPa 0,2 l/m 0 min 2 min 88 W/m 4,2 km/h (1 Bft) 93,62 %
22.05.2016 16:14 18,7 C 17,2 C 16,1 C 87 % 15 lf 1007,1 hPa 0,0 l/m 0 min 2 min 94 W/m 6,3 km/h (2 Bft) 93,48 %
22.05.2016 16:16 18,7 C 17,8 C 16,1 C 87 % 15 lf 1007,0 hPa 0,0 l/m 0 min 2 min 97 W/m 6,3 km/h (2 Bft) 89,36 %
22.05.2016 16:18 18,7 C 17,2 C 16,1 C 88 % 15 lf 1007,0 hPa 0,0 l/m 0 min 2 min 93 W/m 4,2 km/h (1 Bft) 93,62 %
22.05.2016 16:20 18,6 C 17,2 C 16,1 C 88 % 15 lf 1007,1 hPa 0,2 l/m 0 min 2 min 81 W/m 6,3 km/h (2 Bft) 93,62 %
22.05.2016 16:22 18,6 C 17,2 C 15,6 C 88 % 15 lf 1007,1 hPa 0,0 l/m 0 min 2 min 65 W/m 6,3 km/h (2 Bft) 91,49 %
22.05.2016 16:24 18,6 C 17,2 C 15,6 C 88 % 15 lf 1007,1 hPa 0,0 l/m 0 min 2 min 60 W/m 2,1 km/h (1 Bft) 91,49 %
22.05.2016 16:26 18,6 C 17,2 C 16,1 C 88 % 15 lf 1007,1 hPa 0,2 l/m 0 min 2 min 63 W/m 2,1 km/h (1 Bft) 89,47 %
22.05.2016 16:28 18,6 C 17,2 C 16,1 C 89 % 15 lf 1007,0 hPa 0,0 l/m 0 min 2 min 80 W/m 4,2 km/h (1 Bft) 93,62 %
22.05.2016 16:30 18,6 C 17,2 C 16,1 C 88 % 15 lf 1007,0 hPa 0,0 l/m 0 min 2 min 98 W/m 4,2 km/h (1 Bft) 91,30 %
22.05.2016 16:32 18,5 C 17,2 C 15,6 C 88 % 15 lf 1006,9 hPa 0,2 l/m 0 min 2 min 107 W/m 6,3 km/h (2 Bft) 93,62 %
22.05.2016 16:34 18,5 C 17,8 C 16,1 C 89 % 15 lf 1006,9 hPa 0,0 l/m 0 min 2 min 126 W/m 4,2 km/h (1 Bft) 91,49 %
22.05.2016 16:36 18,5 C 17,8 C 16,1 C 89 % 15 lf 1007,0 hPa 0,0 l/m 0 min 2 min 99 W/m 6,3 km/h (2 Bft) 91,49 %
22.05.2016 16:38 18,5 C 17,8 C 16,1 C 89 % 15 lf 1007,0 hPa 0,0 l/m 0 min 2 min 64 W/m 2,1 km/h (1 Bft) 93,62 %
22.05.2016 16:40 18,5 C 17,2 C 16,1 C 89 % 15 lf 1007,1 hPa 0,0 l/m 0 min 2 min 57 W/m 4,2 km/h (1 Bft) 89,36 %
22.05.2016 16:42 18,4 C 17,2 C 16,1 C 89 % 15 lf 1007,0 hPa 0,0 l/m 0 min 2 min 52 W/m 4,2 km/h (1 Bft) 91,30 %
22.05.2016 16:44 18,4 C 17,2 C 16,1 C 89 % 15 lf 1007,0 hPa 0,0 l/m 0 min 2 min 50 W/m 4,2 km/h (1 Bft) 91,49 %
22.05.2016 16:46 18,4 C 17,2 C 15,6 C 90 % 15 lf 1007,0 hPa 0,2 l/m 0 min 2 min 57 W/m 8,4 km/h (2 Bft) 91,49 %
22.05.2016 16:48 18,4 C 17,2 C 16,1 C 90 % 15 lf 1007,0 hPa 0,0 l/m 0 min 2 min 56 W/m 4,2 km/h (1 Bft) 91,49 %
22.05.2016 16:50 18,4 C 17,2 C 15,6 C 90 % 15 lf 1007,0 hPa 0,0 l/m 0 min 2 min 61 W/m 6,3 km/h (2 Bft) 93,62 %
22.05.2016 16:52 18,4 C 17,2 C 15,6 C 90 % 15 lf 1007,0 hPa 0,2 l/m 0 min 2 min 54 W/m 8,4 km/h (2 Bft) 93,75 %
22.05.2016 16:54 18,3 C 16,7 C 15,6 C 90 % 15 lf 1007,1 hPa 0,0 l/m 0 min 2 min 50 W/m 6,3 km/h (2 Bft) 89,36 %
22.05.2016 16:56 18,3 C 16,7 C 15,6 C 90 % 15 lf 1007,1 hPa 0,0 l/m 0 min 2 min 48 W/m 6,3 km/h (2 Bft) 95,65 %
22.05.2016 16:58 18,2 C 16,1 C 15,0 C 90 % 15 lf 1007,1 hPa 0,2 l/m 0 min 2 min 44 W/m 12,6 km/h (3 Bft) 89,36 %
22.05.2016 17:00 18,1 C 16,1 C 15,0 C 90 % 15 lf 1007,1 hPa 0,2 l/m 0 min 2 min 42 W/m 10,5 km/h (2 Bft) 93,62 %
22.05.2016 17:02 18,0 C 16,1 C 15,0 C 90 % 15 lf 1007,1 hPa 0,2 l/m 0 min 2 min 53 W/m 4,2 km/h (1 Bft) 95,74 %
22.05.2016 17:04 17,9 C 16,1 C 15,0 C 90 % 15 lf 1007,1 hPa 0,0 l/m 0 min 2 min 50 W/m 10,5 km/h (2 Bft) 95,74 %
22.05.2016 17:06 17,8 C 15,6 C 15,0 C 90 % 15 lf 1007,1 hPa 0,2 l/m 0 min 2 min 47 W/m 10,5 km/h (2 Bft) 95,74 %
22.05.2016 17:08 17,7 C 15,6 C 15,0 C 89 % 15 lf 1007,1 hPa 0,0 l/m 0 min 2 min 47 W/m 8,4 km/h (2 Bft) 91,30 %
22.05.2016 17:10 17,6 C 15,6 C 15,0 C 90 % 15 lf 1007,2 hPa 0,0 l/m 0 min 2 min 43 W/m 10,5 km/h (2 Bft) 93,62 %
22.05.2016 17:12 17,5 C 15,6 C 15,0 C 90 % 15 lf 1007,2 hPa 0,0 l/m 0 min 2 min 38 W/m 12,6 km/h (3 Bft) 93,62 %
22.05.2016 17:14 17,4 C 15,6 C 14,4 C 90 % 15 lf 1007,2 hPa 0,0 l/m 0 min 2 min 35 W/m 16,7 km/h (3 Bft) 95,74 %
22.05.2016 17:16 17,3 C 15,6 C 14,4 C 90 % 15 lf 1007,2 hPa 0,2 l/m 0 min 2 min 33 W/m 8,4 km/h (2 Bft) 97,87 %
22.05.2016 17:18 17,3 C 15,6 C 14,4 C 90 % 15 lf 1007,2 hPa 0,0 l/m 0 min 2 min 30 W/m 6,3 km/h (2 Bft) 97,87 %
22.05.2016 17:20 17,2 C 15,6 C 14,4 C 90 % 15 lf 1007,2 hPa 0,2 l/m 0 min 2 min 30 W/m 4,2 km/h (1 Bft) 95,65 %
22.05.2016 17:22 17,2 C 15,6 C 14,4 C 90 % 15 lf 1007,1 hPa 0,0 l/m 0 min 2 min 32 W/m 6,3 km/h (2 Bft) 95,74 %
22.05.2016 17:24 17,1 C 15,6 C 14,4 C 90 % 15 lf 1007,1 hPa 0,2 l/m 0 min 2 min 33 W/m 4,2 km/h (1 Bft) 95,74 %
22.05.2016 17:26 17,1 C 15,6 C 14,4 C 90 % 15 lf 1007,1 hPa 0,0 l/m 0 min 2 min 35 W/m 8,4 km/h (2 Bft) 97,87 %
22.05.2016 17:28 17,0 C 15,6 C 14,4 C 90 % 15 lf 1007,1 hPa 0,2 l/m 0 min 2 min 33 W/m 4,2 km/h (1 Bft) 97,87 %
22.05.2016 17:30 17,0 C 15,6 C 14,4 C 90 % 15 lf 1007,1 hPa 0,0 l/m 0 min 2 min 33 W/m 6,3 km/h (2 Bft) 95,74 %
22.05.2016 17:32 16,9 C 15,6 C 14,4 C 91 % 15 lf 1007,1 hPa 0,0 l/m 0 min 2 min 38 W/m 8,4 km/h (2 Bft) 93,48 %
22.05.2016 17:34 16,9 C 15,6 C 14,4 C 91 % 15 lf 1007,2 hPa 0,2 l/m 0 min 2 min 49 W/m 6,3 km/h (2 Bft) 97,87 %
22.05.2016 17:36 16,8 C 15,6 C 14,4 C 91 % 15 lf 1007,1 hPa 0,2 l/m 0 min 2 min 63 W/m 6,3 km/h (2 Bft) 100,00 %
22.05.2016 17:38 16,8 C 15,6 C 14,4 C 91 % 15 lf 1007,1 hPa 0,0 l/m 0 min 2 min 68 W/m 6,3 km/h (2 Bft) 100,00 %
22.05.2016 17:40 16,8 C 16,1 C 15,0 C 91 % 15 lf 1007,2 hPa 0,2 l/m 0 min 2 min 63 W/m 6,3 km/h (2 Bft) 97,87 %
22.05.2016 17:42 16,8 C 15,6 C 15,0 C 91 % 15 lf 1007,2 hPa 0,0 l/m 0 min 2 min 63 W/m 8,4 km/h (2 Bft) 100,00 %
22.05.2016 17:44 16,8 C 15,6 C 15,0 C 91 % 15 lf 1007,2 hPa 0,0 l/m 0 min 2 min 74 W/m 6,3 km/h (2 Bft) 97,83 %
22.05.2016 17:46 16,7 C 15,6 C 15,0 C 92 % 15 lf 1007,2 hPa 0,2 l/m 0 min 2 min 69 W/m 6,3 km/h (2 Bft) 100,00 %
22.05.2016 17:48 16,7 C 15,6 C 15,0 C 92 % 15 lf 1007,2 hPa 0,0 l/m 0 min 2 min 56 W/m 6,3 km/h (2 Bft) 93,62 %
22.05.2016 17:50 16,7 C 15,6 C 15,0 C 92 % 15 lf 1007,2 hPa 0,0 l/m 0 min 2 min 54 W/m 6,3 km/h (2 Bft) 100,00 %
22.05.2016 17:52 16,7 C 15,6 C 15,0 C 92 % 15 lf 1007,2 hPa 0,2 l/m 0 min 2 min 55 W/m 10,5 km/h (2 Bft) 95,74 %
22.05.2016 17:54 16,7 C 15,6 C 15,0 C 92 % 15 lf 1007,2 hPa 0,0 l/m 0 min 2 min 50 W/m 10,5 km/h (2 Bft) 95,74 %
22.05.2016 17:56 16,7 C 15,6 C 15,0 C 92 % 15 lf 1007,2 hPa 0,2 l/m 0 min 2 min 47 W/m 6,3 km/h (2 Bft) 97,83 %
22.05.2016 17:58 16,7 C 15,6 C 15,0 C 92 % 15 lf 1007,2 hPa 0,0 l/m 0 min 2 min 51 W/m 8,4 km/h (2 Bft) 100,00 %
22.05.2016 18:00 16,6 C 15,6 C 14,4 C 92 % 15 lf 1007,3 hPa 0,2 l/m 0 min 2 min 49 W/m 10,5 km/h (2 Bft) 97,87 %
22.05.2016 18:02 16,6 C 15,6 C 14,4 C 92 % 15 lf 1007,3 hPa 0,0 l/m 0 min 2 min 47 W/m 6,3 km/h (2 Bft) 100,00 %
22.05.2016 18:04 16,6 C 15,6 C 14,4 C 93 % 15 lf 1007,2 hPa 0,2 l/m 0 min 2 min 43 W/m 12,6 km/h (3 Bft) 98,08 %
22.05.2016 18:06 16,5 C 15,6 C 14,4 C 93 % 15 lf 1007,2 hPa 0,0 l/m 0 min 2 min 40 W/m 10,5 km/h (2 Bft) 100,00 %
22.05.2016 18:08 16,5 C 15,6 C 14,4 C 92 % 15 lf 1007,2 hPa 0,2 l/m 0 min 2 min 39 W/m 10,5 km/h (2 Bft) 97,87 %
22.05.2016 18:10 16,4 C 15,6 C 14,4 C 92 % 15 lf 1007,2 hPa 0,0 l/m 0 min 2 min 41 W/m 8,4 km/h (2 Bft) 97,87 %
22.05.2016 18:12 16,4 C 15,0 C 14,4 C 93 % 15 lf 1007,1 hPa 0,0 l/m 0 min 2 min 43 W/m 14,6 km/h (3 Bft) 94,55 %
22.05.2016 18:14 16,3 C 15,0 C 14,4 C 93 % 15 lf 1007,1 hPa 0,0 l/m 0 min 2 min 43 W/m 14,6 km/h (3 Bft) 97,87 %
22.05.2016 18:16 16,3 C 15,0 C 14,4 C 93 % 15 lf 1007,1 hPa 0,0 l/m 0 min 2 min 44 W/m 12,6 km/h (3 Bft) 95,74 %
22.05.2016 18:18 16,3 C 15,0 C 14,4 C 93 % 15 lf 1007,1 hPa 0,0 l/m 0 min 2 min 43 W/m 10,5 km/h (2 Bft) 97,87 %
22.05.2016 18:20 16,2 C 15,0 C 14,4 C 93 % 15 lf 1007,1 hPa 0,0 l/m 0 min 2 min 40 W/m 8,4 km/h (2 Bft) 97,87 %
22.05.2016 18:22 16,2 C 15,0 C 14,4 C 93 % 15 lf 1007,1 hPa 0,0 l/m 0 min 2 min 36 W/m 8,4 km/h (2 Bft) 95,74 %
22.05.2016 18:24 16,2 C 15,0 C 13,9 C 93 % 15 lf 1007,1 hPa 0,0 l/m 0 min 2 min 33 W/m 6,3 km/h (2 Bft) 100,00 %
22.05.2016 18:26 16,1 C 15,0 C 13,9 C 93 % 15 lf 1007,1 hPa 0,0 l/m 0 min 2 min 33 W/m 6,3 km/h (2 Bft) 97,87 %
22.05.2016 18:28 16,1 C 15,0 C 13,9 C 93 % 15 lf 1007,1 hPa 0,0 l/m 0 min 2 min 32 W/m 6,3 km/h (2 Bft) 97,87 %
22.05.2016 18:30 16,1 C 15,0 C 13,9 C 93 % 15 lf 1007,1 hPa 0,2 l/m 0 min 2 min 32 W/m 2,1 km/h (1 Bft) 97,87 %
22.05.2016 18:32 16,1 C 15,0 C 13,9 C 93 % 15 lf 1007,1 hPa 0,0 l/m 0 min 2 min 32 W/m 2,1 km/h (1 Bft) 97,87 %
22.05.2016 18:34 16,0 C 15,0 C 13,9 C 93 % 15 lf 1007,1 hPa 0,0 l/m 0 min 2 min 35 W/m 6,3 km/h (2 Bft) 97,83 %
22.05.2016 18:36 16,0 C 14,4 C 13,9 C 93 % 15 lf 1007,0 hPa 0,0 l/m 0 min 2 min 40 W/m 6,3 km/h (2 Bft) 97,87 %
22.05.2016 18:38 15,9 C 15,0 C 13,9 C 93 % 15 lf 1007,0 hPa 0,0 l/m 0 min 2 min 47 W/m 2,1 km/h (1 Bft) 95,74 %
22.05.2016 18:40 15,9 C 15,0 C 13,9 C 93 % 15 lf 1007,0 hPa 0,2 l/m 0 min 2 min 53 W/m 6,3 km/h (2 Bft) 95,74 %
22.05.2016 18:42 15,9 C 15,0 C 13,9 C 93 % 15 lf 1007,0 hPa 0,0 l/m 0 min 2 min 56 W/m 6,3 km/h (2 Bft) 95,74 %
22.05.2016 18:44 15,9 C 15,0 C 13,9 C 93 % 15 lf 1007,0 hPa 0,0 l/m 0 min 2 min 57 W/m 6,3 km/h (2 Bft) 95,74 %
22.05.2016 18:46 15,8 C 15,0 C 13,9 C 93 % 15 lf 1007,0 hPa 0,0 l/m 0 min 2 min 61 W/m 4,2 km/h (1 Bft) 100,00 %
22.05.2016 18:48 15,8 C 15,0 C 13,9 C 93 % 15 lf 1006,8 hPa 0,2 l/m 0 min 2 min 57 W/m 0,0 km/h (0 Bft) 95,74 %
22.05.2016 18:50 15,8 C 15,0 C 14,4 C 93 % 15 lf 1006,9 hPa 0,0 l/m 0 min 2 min 48 W/m 4,2 km/h (1 Bft) 95,74 %
22.05.2016 18:52 15,8 C 15,0 C 14,4 C 93 % 15 lf 1006,9 hPa 0,0 l/m 0 min 2 min 47 W/m 4,2 km/h (1 Bft) 100,00 %
22.05.2016 18:54 15,8 C 15,0 C 14,4 C 93 % 15 lf 1006,8 hPa 0,0 l/m 0 min 2 min 42 W/m 2,1 km/h (1 Bft) 91,49 %
22.05.2016 18:56 15,8 C 15,0 C 14,4 C 93 % 15 lf 1006,7 hPa 0,0 l/m 0 min 2 min 39 W/m 4,2 km/h (1 Bft) 95,74 %
22.05.2016 18:58 15,8 C 15,0 C 14,4 C 93 % 15 lf 1006,7 hPa 0,0 l/m 0 min 2 min 39 W/m 4,2 km/h (1 Bft) 97,83 %
22.05.2016 19:00 15,8 C 15,0 C 13,9 C 93 % 15 lf 1006,6 hPa 0,0 l/m 0 min 2 min 42 W/m 6,3 km/h (2 Bft) 97,87 %
22.05.2016 19:02 15,8 C 15,0 C 13,9 C 93 % 15 lf 1006,7 hPa 0,0 l/m 0 min 2 min 40 W/m 6,3 km/h (2 Bft) 97,87 %
22.05.2016 19:04 15,8 C 15,0 C 13,9 C 93 % 15 lf 1006,7 hPa 0,0 l/m 0 min 2 min 33 W/m 2,1 km/h (1 Bft) 95,74 %
22.05.2016 19:07 15,8 C 15,0 C 13,9 C 93 % 15 lf 1006,8 hPa 0,0 l/m 0 min 2 min 30 W/m 4,2 km/h (1 Bft) 95,71 %
22.05.2016 19:08 15,8 C 15,0 C 13,9 C 94 % 15 lf 1006,8 hPa 0,2 l/m 0 min 0 min 25 W/m 6,3 km/h (2 Bft) 95,83 %
22.05.2016 19:10 15,8 C 15,0 C 13,9 C 94 % 15 lf 1006,9 hPa 0,0 l/m 0 min 2 min 23 W/m 4,2 km/h (1 Bft) 97,83 %
22.05.2016 19:12 15,8 C 15,0 C 13,9 C 94 % 15 lf 1007,0 hPa 0,0 l/m 0 min 2 min 19 W/m 6,3 km/h (2 Bft) 95,74 %
22.05.2016 19:14 15,8 C 15,0 C 14,4 C 94 % 15 lf 1007,0 hPa 0,0 l/m 0 min 2 min 19 W/m 8,4 km/h (2 Bft) 97,87 %
22.05.2016 19:16 15,8 C 15,6 C 14,4 C 94 % 15 lf 1007,0 hPa 0,0 l/m 0 min 2 min 25 W/m 6,3 km/h (2 Bft) 97,14 %
22.05.2016 19:18 15,8 C 15,6 C 14,4 C 94 % 15 lf 1007,0 hPa 0,0 l/m 0 min 2 min 28 W/m 4,2 km/h (1 Bft) 96,00 %
22.05.2016 19:20 15,8 C 15,6 C 14,4 C 94 % 15 lf 1007,0 hPa 0,0 l/m 0 min 2 min 25 W/m 8,4 km/h (2 Bft) 97,87 %
22.05.2016 19:22 15,8 C 15,6 C 14,4 C 94 % 15 lf 1007,0 hPa 0,0 l/m 0 min 2 min 23 W/m 8,4 km/h (2 Bft) 97,87 %
22.05.2016 19:24 15,8 C 15,6 C 14,4 C 94 % 15 lf 1007,0 hPa 0,0 l/m 0 min 2 min 27 W/m 6,3 km/h (2 Bft) 97,87 %
22.05.2016 19:26 15,8 C 15,6 C 14,4 C 94 % 15 lf 1007,0 hPa 0,0 l/m 0 min 2 min 34 W/m 8,4 km/h (2 Bft) 91,49 %
22.05.2016 19:28 15,9 C 15,6 C 14,4 C 94 % 15 lf 1006,9 hPa 0,0 l/m 0 min 2 min 40 W/m 6,3 km/h (2 Bft) 91,49 %
22.05.2016 19:30 15,9 C 15,6 C 14,4 C 94 % 15 lf 1006,9 hPa 0,0 l/m 0 min 2 min 42 W/m 8,4 km/h (2 Bft) 91,30 %
22.05.2016 19:32 15,9 C 15,6 C 14,4 C 95 % 15 lf 1006,8 hPa 0,0 l/m 0 min 2 min 39 W/m 8,4 km/h (2 Bft) 96,36 %
22.05.2016 19:34 15,9 C 15,6 C 14,4 C 95 % 15 lf 1006,8 hPa 0,0 l/m 0 min 2 min 33 W/m 10,5 km/h (2 Bft) 95,65 %
22.05.2016 19:36 15,9 C 15,6 C 14,4 C 95 % 15 lf 1006,9 hPa 0,0 l/m 0 min 2 min 32 W/m 8,4 km/h (2 Bft) 94,74 %
22.05.2016 19:38 16,0 C 15,6 C 14,4 C 95 % 15 lf 1006,8 hPa 0,0 l/m 0 min 2 min 33 W/m 6,3 km/h (2 Bft) 93,88 %
22.05.2016 19:40 16,0 C 15,6 C 14,4 C 95 % 15 lf 1006,8 hPa 0,0 l/m 0 min 0 min 33 W/m 8,4 km/h (2 Bft) 95,65 %
22.05.2016 19:42 16,0 C 15,6 C 14,4 C 95 % 15 lf 1006,7 hPa 0,0 l/m 0 min 2 min 35 W/m 8,4 km/h (2 Bft) 93,62 %
22.05.2016 19:44 16,0 C 15,6 C 14,4 C 95 % 15 lf 1006,7 hPa 0,0 l/m 0 min 0 min 39 W/m 10,5 km/h (2 Bft) 91,49 %
22.05.2016 19:46 16,0 C 15,6 C 14,4 C 95 % 15 lf 1006,7 hPa 0,0 l/m 0 min 2 min 42 W/m 8,4 km/h (2 Bft) 93,62 %
22.05.2016 19:47 16,1 C 15,6 C 14,4 C 95 % 15 lf 1006,7 hPa 0,0 l/m 0 min 1 min 42 W/m 6,3 km/h (2 Bft) 100,00 %
22.05.2016 19:48 16,1 C 15,6 C 14,4 C 95 % 15 lf 1006,7 hPa 0,0 l/m 0 min 1 min 40 W/m 8,4 km/h (2 Bft) 91,30 %
22.05.2016 19:52 16,1 C 15,6 C 14,4 C 95 % 15 lf 1006,8 hPa 0,2 l/m 0 min 2 min 37 W/m 6,3 km/h (2 Bft) 94,38 %
22.05.2016 19:54 16,1 C 15,6 C 14,4 C 95 % 15 lf 1006,7 hPa 0,0 l/m 0 min 0 min 37 W/m 6,3 km/h (2 Bft) 93,62 %
22.05.2016 19:56 16,1 C 15,6 C 14,4 C 95 % 15 lf 1006,8 hPa 0,0 l/m 0 min 2 min 39 W/m 8,4 km/h (2 Bft) 89,36 %
22.05.2016 19:58 16,1 C 15,6 C 14,4 C 95 % 15 lf 1006,8 hPa 0,0 l/m 0 min 0 min 39 W/m 8,4 km/h (2 Bft) 91,49 %
22.05.2016 20:00 16,2 C 15,6 C 14,4 C 96 % 15 lf 1006,8 hPa 0,0 l/m 0 min 0 min 38 W/m 10,5 km/h (2 Bft) 95,74 %
22.05.2016 20:02 16,2 C 15,6 C 14,4 C 96 % 15 lf 1006,8 hPa 0,0 l/m 0 min 0 min 33 W/m 8,4 km/h (2 Bft) 92,86 %
22.05.2016 20:04 16,2 C 15,6 C 14,4 C 96 % 15 lf 1006,8 hPa 0,0 l/m 0 min 0 min 26 W/m 10,5 km/h (2 Bft) 96,00 %
22.05.2016 20:06 16,2 C 15,6 C 14,4 C 96 % 15 lf 1006,8 hPa 0,0 l/m 0 min 0 min 20 W/m 6,3 km/h (2 Bft) 91,49 %
22.05.2016 20:08 16,2 C 15,6 C 14,4 C 96 % 15 lf 1006,9 hPa 0,0 l/m 0 min 0 min 16 W/m 4,2 km/h (1 Bft) 93,62 %
22.05.2016 20:10 16,2 C 15,6 C 14,4 C 96 % 15 lf 1006,8 hPa 0,0 l/m 0 min 0 min 12 W/m 8,4 km/h (2 Bft) 95,65 %
22.05.2016 20:12 16,2 C 15,6 C 14,4 C 96 % 15 lf 1006,8 hPa 0,0 l/m 0 min 2 min 12 W/m 6,3 km/h (2 Bft) 91,49 %
22.05.2016 20:14 16,2 C 15,6 C 14,4 C 96 % 15 lf 1006,9 hPa 0,0 l/m 0 min 0 min 12 W/m 6,3 km/h (2 Bft) 93,62 %
22.05.2016 20:16 16,2 C 15,6 C 14,4 C 96 % 15 lf 1006,9 hPa 0,0 l/m 0 min 2 min 11 W/m 8,4 km/h (2 Bft) 91,49 %
22.05.2016 20:18 16,2 C 15,6 C 14,4 C 96 % 15 lf 1006,8 hPa 0,0 l/m 0 min 2 min 9 W/m 8,4 km/h (2 Bft) 91,49 %
22.05.2016 20:20 16,2 C 15,6 C 14,4 C 96 % 15 lf 1006,8 hPa 0,0 l/m 0 min 2 min 9 W/m 6,3 km/h (2 Bft) 89,36 %
22.05.2016 20:23 16,2 C 15,6 C 14,4 C 96 % 15 lf 1006,8 hPa 0,0 l/m 0 min 2 min 10 W/m 8,4 km/h (2 Bft) 92,86 %
22.05.2016 20:24 16,2 C 15,6 C 14,4 C 96 % 15 lf 1006,8 hPa 0,0 l/m 0 min 1 min 11 W/m 6,3 km/h (2 Bft) 95,65 %
22.05.2016 20:26 16,2 C 15,6 C 14,4 C 96 % 15 lf 1006,8 hPa 0,0 l/m 0 min 0 min 11 W/m 8,4 km/h (2 Bft) 93,62 %
22.05.2016 20:27 16,2 C 15,6 C 14,4 C 96 % 15 lf 1006,8 hPa 0,0 l/m 0 min 0 min 11 W/m 8,4 km/h (2 Bft) 95,65 %
22.05.2016 20:28 16,1 C 15,6 C 14,4 C 96 % 15 lf 1006,9 hPa 0,0 l/m 0 min 1 min 11 W/m 8,4 km/h (2 Bft) 95,65 %
22.05.2016 20:30 16,1 C 15,6 C 14,4 C 96 % 15 lf 1006,9 hPa 0,0 l/m 0 min 0 min 11 W/m 4,2 km/h (1 Bft) 100,00 %
22.05.2016 20:32 16,1 C 15,6 C 14,4 C 96 % 15 lf 1006,9 hPa 0,0 l/m 0 min 2 min 11 W/m 10,5 km/h (2 Bft) 94,12 %
22.05.2016 20:34 16,1 C 15,6 C 14,4 C 96 % 15 lf 1006,9 hPa 0,0 l/m 0 min 2 min 12 W/m 8,4 km/h (2 Bft) 97,87 %
22.05.2016 20:36 16,1 C 15,6 C 14,4 C 96 % 15 lf 1006,9 hPa 0,0 l/m 0 min 2 min 14 W/m 8,4 km/h (2 Bft) 91,30 %
22.05.2016 20:38 16,1 C 15,6 C 14,4 C 96 % 15 lf 1006,8 hPa 0,0 l/m 0 min 2 min 15 W/m 6,3 km/h (2 Bft) 95,74 %
22.05.2016 20:40 16,1 C 15,6 C 14,4 C 96 % 15 lf 1006,8 hPa 0,0 l/m 0 min 2 min 16 W/m 8,4 km/h (2 Bft) 95,74 %
22.05.2016 20:42 16,1 C 15,6 C 14,4 C 96 % 15 lf 1006,9 hPa 0,0 l/m 0 min 2 min 16 W/m 8,4 km/h (2 Bft) 95,74 %
22.05.2016 20:44 16,0 C 15,6 C 14,4 C 96 % 15 lf 1006,8 hPa 0,0 l/m 0 min 2 min 16 W/m 4,2 km/h (1 Bft) 97,87 %
22.05.2016 20:46 16,0 C 15,6 C 14,4 C 96 % 15 lf 1006,9 hPa 0,0 l/m 0 min 2 min 14 W/m 6,3 km/h (2 Bft) 95,74 %
22.05.2016 20:48 16,0 C 15,6 C 14,4 C 96 % 15 lf 1006,9 hPa 0,0 l/m 0 min 0 min 14 W/m 6,3 km/h (2 Bft) 95,65 %
22.05.2016 20:50 16,0 C 15,6 C 14,4 C 96 % 15 lf 1006,9 hPa 0,0 l/m 0 min 0 min 14 W/m 6,3 km/h (2 Bft) 97,87 %
22.05.2016 20:52 15,9 C 15,6 C 14,4 C 96 % 15 lf 1007,0 hPa 0,0 l/m 0 min 0 min 14 W/m 4,2 km/h (1 Bft) 100,00 %
22.05.2016 20:54 15,9 C 15,6 C 14,4 C 96 % 15 lf 1006,9 hPa 0,0 l/m 0 min 0 min 15 W/m 4,2 km/h (1 Bft) 97,87 %
22.05.2016 20:56 15,9 C 15,6 C 14,4 C 96 % 15 lf 1006,8 hPa 0,0 l/m 0 min 0 min 17 W/m 4,2 km/h (1 Bft) 100,00 %
22.05.2016 20:58 15,9 C 15,6 C 14,4 C 96 % 15 lf 1006,9 hPa 0,0 l/m 0 min 0 min 16 W/m 0,0 km/h (0 Bft) 100,00 %
22.05.2016 21:00 15,9 C 15,6 C 14,4 C 96 % 15 lf 1006,9 hPa 0,0 l/m 0 min 0 min 14 W/m 4,2 km/h (1 Bft) 100,00 %
22.05.2016 21:02 15,9 C 15,6 C 14,4 C 96 % 15 lf 1007,0 hPa 0,0 l/m 0 min 0 min 12 W/m 4,2 km/h (1 Bft) 100,00 %
22.05.2016 21:04 15,9 C 15,6 C 14,4 C 96 % 15 lf 1007,0 hPa 0,0 l/m 0 min 0 min 11 W/m 6,3 km/h (2 Bft) 95,74 %
22.05.2016 21:07 15,9 C 15,6 C 14,4 C 96 % 15 lf 1007,0 hPa 0,0 l/m 0 min 0 min 10 W/m 6,3 km/h (2 Bft) 100,00 %
22.05.2016 21:08 15,9 C 15,6 C 14,4 C 96 % 15 lf 1007,0 hPa 0,0 l/m 0 min 0 min 8 W/m 6,3 km/h (2 Bft) 100,00 %
22.05.2016 21:10 15,9 C 15,6 C 13,9 C 96 % 15 lf 1007,0 hPa 0,0 l/m 0 min 0 min 7 W/m 6,3 km/h (2 Bft) 100,00 %
22.05.2016 21:12 15,9 C 15,0 C 13,9 C 96 % 15 lf 1007,1 hPa 0,0 l/m 0 min 0 min 5 W/m 8,4 km/h (2 Bft) 97,87 %
22.05.2016 21:14 15,8 C 15,0 C 13,9 C 96 % 15 lf 1007,1 hPa 0,0 l/m 0 min 0 min 5 W/m 8,4 km/h (2 Bft) 97,87 %
22.05.2016 21:16 15,8 C 15,0 C 13,9 C 96 % 15 lf 1007,0 hPa 0,0 l/m 0 min 0 min 5 W/m 8,4 km/h (2 Bft) 100,00 %
22.05.2016 21:18 15,8 C 15,0 C 13,9 C 96 % 15 lf 1007,1 hPa 0,0 l/m 0 min 2 min 5 W/m 8,4 km/h (2 Bft) 100,00 %
22.05.2016 21:20 15,8 C 15,0 C 13,9 C 96 % 15 lf 1007,0 hPa 0,0 l/m 0 min 0 min 5 W/m 6,3 km/h (2 Bft) 100,00 %
22.05.2016 21:22 15,8 C 15,0 C 13,9 C 96 % 15 lf 1007,0 hPa 0,0 l/m 0 min 0 min 5 W/m 6,3 km/h (2 Bft) 100,00 %
22.05.2016 21:23 15,8 C 15,0 C 13,9 C 96 % 15 lf 1007,1 hPa 0,0 l/m 0 min 0 min 5 W/m 6,3 km/h (2 Bft) 100,00 %
22.05.2016 21:24 15,8 C 15,0 C 13,9 C 96 % 15 lf 1007,0 hPa 0,0 l/m 0 min 0 min 5 W/m 6,3 km/h (2 Bft) 100,00 %
22.05.2016 21:26 15,8 C 15,0 C 13,9 C 96 % 15 lf 1007,0 hPa 0,0 l/m 0 min 0 min 5 W/m 4,2 km/h (1 Bft) 84,62 %
22.05.2016 21:28 15,7 C 15,0 C 13,9 C 96 % 15 lf 1007,1 hPa 0,0 l/m 0 min 0 min 3 W/m 8,4 km/h (2 Bft) 97,83 %
22.05.2016 21:30 15,7 C 15,0 C 13,9 C 96 % 15 lf 1007,1 hPa 0,0 l/m 0 min 0 min 0 W/m 12,6 km/h (3 Bft) 100,00 %
22.05.2016 21:32 15,7 C 15,0 C 13,9 C 96 % 15 lf 1007,2 hPa 0,0 l/m 0 min 0 min 0 W/m 8,4 km/h (2 Bft) 97,87 %
22.05.2016 21:34 15,7 C 15,0 C 13,9 C 96 % 15 lf 1007,2 hPa 0,0 l/m 0 min 0 min 0 W/m 10,5 km/h (2 Bft) 97,87 %
22.05.2016 21:36 15,7 C 15,0 C 13,9 C 96 % 15 lf 1007,2 hPa 0,0 l/m 0 min 0 min 0 W/m 8,4 km/h (2 Bft) 95,74 %
22.05.2016 21:38 15,7 C 15,0 C 13,9 C 96 % 15 lf 1007,2 hPa 0,0 l/m 0 min 0 min 0 W/m 8,4 km/h (2 Bft) 100,00 %
22.05.2016 21:40 15,7 C 15,0 C 13,9 C 96 % 15 lf 1007,2 hPa 0,0 l/m 0 min 0 min 0 W/m 8,4 km/h (2 Bft) 97,83 %
22.05.2016 21:42 15,6 C 15,0 C 13,9 C 96 % 15 lf 1007,1 hPa 0,0 l/m 0 min 0 min 0 W/m 6,3 km/h (2 Bft) 100,00 %
22.05.2016 21:44 15,6 C 15,0 C 13,9 C 96 % 15 lf 1007,1 hPa 0,0 l/m 0 min 0 min 0 W/m 8,4 km/h (2 Bft) 93,62 %
22.05.2016 21:46 15,6 C 15,0 C 13,9 C 96 % 15 lf 1007,2 hPa 0,0 l/m 0 min 0 min 0 W/m 6,3 km/h (2 Bft) 97,87 %
22.05.2016 21:48 15,6 C 15,0 C 13,9 C 96 % 15 lf 1007,1 hPa 0,0 l/m 0 min 0 min 0 W/m 8,4 km/h (2 Bft) 97,87 %
22.05.2016 21:50 15,6 C 15,0 C 13,9 C 96 % 15 lf 1007,1 hPa 0,0 l/m 0 min 0 min 0 W/m 8,4 km/h (2 Bft) 97,87 %
22.05.2016 21:52 15,6 C 15,0 C 13,9 C 96 % 15 lf 1007,1 hPa 0,0 l/m 0 min 0 min 0 W/m 10,5 km/h (2 Bft) 97,78 %
22.05.2016 21:54 15,6 C 15,0 C 13,9 C 97 % 15 lf 1007,1 hPa 0,0 l/m 0 min 0 min 0 W/m 6,3 km/h (2 Bft) 93,62 %
22.05.2016 21:56 15,5 C 15,0 C 13,9 C 97 % 15 lf 1007,1 hPa 0,0 l/m 0 min 0 min 0 W/m 8,4 km/h (2 Bft) 97,87 %
22.05.2016 21:58 15,5 C 15,0 C 13,9 C 97 % 15 lf 1007,1 hPa 0,0 l/m 0 min 2 min 0 W/m 6,3 km/h (2 Bft) 97,87 %
22.05.2016 22:00 15,5 C 15,0 C 13,9 C 97 % 15 lf 1007,1 hPa 0,0 l/m 0 min 0 min 0 W/m 4,2 km/h (1 Bft) 95,74 %
22.05.2016 22:02 15,5 C 15,0 C 13,9 C 97 % 15 lf 1007,1 hPa 0,0 l/m 0 min 0 min 0 W/m 6,3 km/h (2 Bft) 93,48 %
22.05.2016 22:04 15,5 C 15,0 C 13,9 C 97 % 15 lf 1007,1 hPa 0,0 l/m 0 min 0 min 0 W/m 8,4 km/h (2 Bft) 97,87 %
22.05.2016 22:06 15,5 C 15,0 C 13,9 C 97 % 15 lf 1007,1 hPa 0,0 l/m 0 min 0 min 0 W/m 8,4 km/h (2 Bft) 95,74 %
22.05.2016 22:08 15,4 C 15,0 C 13,9 C 97 % 15 lf 1007,1 hPa 0,0 l/m 0 min 0 min 0 W/m 8,4 km/h (2 Bft) 93,62 %
22.05.2016 22:10 15,4 C 15,0 C 13,9 C 97 % 15 lf 1007,1 hPa 0,0 l/m 0 min 0 min 0 W/m 6,3 km/h (2 Bft) 95,74 %
22.05.2016 22:12 15,4 C 15,0 C 13,9 C 97 % 15 lf 1007,1 hPa 0,0 l/m 0 min 0 min 0 W/m 6,3 km/h (2 Bft) 91,49 %
22.05.2016 22:14 15,4 C 15,0 C 13,9 C 97 % 15 lf 1007,1 hPa 0,0 l/m 0 min 0 min 0 W/m 8,4 km/h (2 Bft) 93,48 %
22.05.2016 22:16 15,4 C 15,0 C 13,9 C 97 % 15 lf 1007,1 hPa 0,0 l/m 0 min 0 min 0 W/m 6,3 km/h (2 Bft) 95,74 %
22.05.2016 22:18 15,4 C 15,0 C 13,9 C 97 % 15 lf 1007,1 hPa 0,0 l/m 0 min 0 min 0 W/m 10,5 km/h (2 Bft) 91,49 %
22.05.2016 22:20 15,4 C 15,0 C 13,9 C 97 % 15 lf 1007,0 hPa 0,0 l/m 0 min 0 min 0 W/m 8,4 km/h (2 Bft) 91,49 %
22.05.2016 22:22 15,4 C 15,0 C 13,9 C 97 % 15 lf 1007,0 hPa 0,0 l/m 0 min 0 min 0 W/m 6,3 km/h (2 Bft) 93,62 %
22.05.2016 22:24 15,4 C 15,0 C 13,9 C 97 % 15 lf 1007,1 hPa 0,0 l/m 0 min 0 min 0 W/m 4,2 km/h (1 Bft) 95,74 %
22.05.2016 22:26 15,4 C 15,0 C 13,9 C 97 % 15 lf 1007,0 hPa 0,0 l/m 0 min 0 min 0 W/m 6,3 km/h (2 Bft) 95,65 %
22.05.2016 22:28 15,4 C 15,0 C 13,9 C 97 % 15 lf 1007,0 hPa 0,0 l/m 0 min 0 min 0 W/m 6,3 km/h (2 Bft) 93,62 %
22.05.2016 22:30 15,4 C 15,0 C 13,9 C 97 % 15 lf 1007,0 hPa 0,0 l/m 0 min 2 min 0 W/m 4,2 km/h (1 Bft) 93,62 %
22.05.2016 22:32 15,3 C 15,0 C 13,9 C 97 % 15 lf 1007,0 hPa 0,0 l/m 0 min 2 min 0 W/m 6,3 km/h (2 Bft) 97,87 %
22.05.2016 22:34 15,3 C 15,0 C 13,9 C 97 % 15 lf 1007,0 hPa 0,0 l/m 0 min 0 min 0 W/m 6,3 km/h (2 Bft) 93,62 %
22.05.2016 22:36 15,3 C 15,0 C 13,9 C 97 % 15 lf 1007,0 hPa 0,0 l/m 0 min 2 min 0 W/m 8,4 km/h (2 Bft) 91,49 %
22.05.2016 22:38 15,3 C 15,0 C 13,9 C 97 % 15 lf 1007,0 hPa 0,0 l/m 0 min 2 min 0 W/m 6,3 km/h (2 Bft) 95,65 %
22.05.2016 22:40 15,3 C 15,0 C 13,9 C 97 % 15 lf 1007,0 hPa 0,0 l/m 0 min 0 min 0 W/m 8,4 km/h (2 Bft) 95,74 %
22.05.2016 22:42 15,3 C 15,0 C 13,9 C 97 % 15 lf 1007,0 hPa 0,0 l/m 0 min 0 min 0 W/m 10,5 km/h (2 Bft) 95,74 %
22.05.2016 22:44 15,3 C 15,0 C 13,9 C 97 % 15 lf 1007,0 hPa 0,0 l/m 0 min 0 min 0 W/m 10,5 km/h (2 Bft) 97,87 %
22.05.2016 22:46 15,3 C 15,0 C 13,9 C 97 % 15 lf 1007,0 hPa 0,0 l/m 0 min 0 min 0 W/m 6,3 km/h (2 Bft) 97,87 %
22.05.2016 22:48 15,3 C 15,0 C 13,9 C 97 % 15 lf 1006,9 hPa 0,0 l/m 0 min 0 min 0 W/m 6,3 km/h (2 Bft) 95,74 %
22.05.2016 22:50 15,3 C 14,4 C 13,9 C 97 % 15 lf 1007,0 hPa 0,0 l/m 0 min 0 min 0 W/m 6,3 km/h (2 Bft) 95,65 %
22.05.2016 22:52 15,3 C 15,0 C 13,9 C 97 % 15 lf 1006,8 hPa 0,0 l/m 0 min 0 min 0 W/m 4,2 km/h (1 Bft) 93,62 %
22.05.2016 22:54 15,2 C 14,4 C 13,9 C 97 % 15 lf 1006,6 hPa 0,0 l/m 0 min 0 min 0 W/m 6,3 km/h (2 Bft) 97,87 %
22.05.2016 22:56 15,2 C 15,0 C 13,9 C 97 % 15 lf 1006,6 hPa 0,0 l/m 0 min 0 min 0 W/m 4,2 km/h (1 Bft) 95,74 %
22.05.2016 22:58 15,2 C 15,0 C 13,3 C 97 % 15 lf 1006,7 hPa 0,0 l/m 0 min 0 min 0 W/m 6,3 km/h (2 Bft) 97,87 %
22.05.2016 23:00 15,2 C 14,4 C 13,3 C 97 % 15 lf 1006,7 hPa 0,0 l/m 0 min 0 min 0 W/m 6,3 km/h (2 Bft) 97,87 %
22.05.2016 23:02 15,2 C 14,4 C 13,3 C 97 % 15 lf 1006,8 hPa 0,0 l/m 0 min 0 min 0 W/m 8,4 km/h (2 Bft) 97,83 %
22.05.2016 23:04 15,2 C 14,4 C 13,3 C 97 % 15 lf 1006,9 hPa 0,0 l/m 0 min 0 min 0 W/m 8,4 km/h (2 Bft) 97,87 %
22.05.2016 23:06 15,2 C 14,4 C 13,3 C 97 % 15 lf 1007,0 hPa 0,0 l/m 0 min 0 min 0 W/m 8,4 km/h (2 Bft) 97,87 %
22.05.2016 23:08 15,2 C 14,4 C 13,3 C 97 % 15 lf 1006,8 hPa 0,0 l/m 0 min 0 min 0 W/m 8,4 km/h (2 Bft) 93,62 %
22.05.2016 23:10 15,2 C 14,4 C 13,3 C 97 % 15 lf 1006,7 hPa 0,0 l/m 0 min 0 min 0 W/m 6,3 km/h (2 Bft) 93,62 %
22.05.2016 23:12 15,2 C 14,4 C 13,3 C 97 % 15 lf 1006,7 hPa 0,0 l/m 0 min 0 min 0 W/m 14,6 km/h (3 Bft) 95,74 %
22.05.2016 23:14 15,1 C 14,4 C 13,3 C 97 % 15 lf 1006,9 hPa 0,0 l/m 0 min 0 min 0 W/m 10,5 km/h (2 Bft) 97,83 %
22.05.2016 23:16 15,1 C 14,4 C 13,3 C 97 % 15 lf 1006,9 hPa 0,0 l/m 0 min 0 min 0 W/m 27,2 km/h (4 Bft) 95,74 %
22.05.2016 23:18 15,1 C 14,4 C 13,3 C 97 % 15 lf 1007,0 hPa 0,0 l/m 0 min 2 min 0 W/m 23,0 km/h (4 Bft) 97,87 %
22.05.2016 23:20 14,9 C 14,4 C 13,3 C 97 % 15 lf 1007,0 hPa 0,0 l/m 0 min 2 min 0 W/m 25,1 km/h (4 Bft) 97,87 %
22.05.2016 23:22 14,9 C 14,4 C 12,8 C 97 % 15 lf 1006,9 hPa 0,0 l/m 0 min 0 min 0 W/m 16,7 km/h (3 Bft) 93,62 %
22.05.2016 23:24 14,8 C 14,4 C 12,8 C 97 % 15 lf 1006,9 hPa 0,0 l/m 0 min 0 min 0 W/m 14,6 km/h (3 Bft) 97,83 %
22.05.2016 23:26 14,8 C 13,9 C 12,8 C 97 % 15 lf 1006,9 hPa 0,0 l/m 0 min 0 min 0 W/m 14,6 km/h (3 Bft) 97,87 %
22.05.2016 23:28 14,7 C 13,9 C 12,8 C 97 % 15 lf 1006,8 hPa 0,0 l/m 0 min 0 min 0 W/m 12,6 km/h (3 Bft) 97,87 %
22.05.2016 23:30 14,7 C 13,9 C 12,8 C 97 % 15 lf 1006,7 hPa 0,0 l/m 0 min 0 min 0 W/m 8,4 km/h (2 Bft) 95,74 %
22.05.2016 23:32 14,7 C 13,9 C 12,8 C 97 % 15 lf 1006,7 hPa 0,0 l/m 0 min 0 min 0 W/m 8,4 km/h (2 Bft) 100,00 %
22.05.2016 23:34 14,6 C 13,9 C 12,8 C 97 % 15 lf 1006,7 hPa 0,0 l/m 0 min 0 min 0 W/m 8,4 km/h (2 Bft) 100,00 %
22.05.2016 23:36 14,6 C 13,9 C 12,8 C 97 % 15 lf 1006,6 hPa 0,0 l/m 0 min 0 min 0 W/m 12,6 km/h (3 Bft) 95,74 %
22.05.2016 23:38 14,6 C 13,9 C 12,8 C 97 % 15 lf 1006,5 hPa 0,0 l/m 0 min 0 min 0 W/m 8,4 km/h (2 Bft) 97,83 %
22.05.2016 23:40 14,6 C 13,9 C 12,8 C 96 % 15 lf 1006,6 hPa 0,0 l/m 0 min 0 min 0 W/m 8,4 km/h (2 Bft) 100,00 %
22.05.2016 23:42 14,6 C 13,9 C 12,8 C 96 % 15 lf 1006,7 hPa 0,0 l/m 0 min 0 min 0 W/m 12,6 km/h (3 Bft) 95,74 %
22.05.2016 23:44 14,5 C 13,9 C 12,8 C 96 % 15 lf 1006,8 hPa 0,0 l/m 0 min 0 min 0 W/m 6,3 km/h (2 Bft) 97,87 %
22.05.2016 23:46 14,5 C 13,9 C 12,8 C 96 % 15 lf 1006,9 hPa 0,0 l/m 0 min 0 min 0 W/m 4,2 km/h (1 Bft) 97,87 %
22.05.2016 23:48 14,5 C 13,9 C 12,8 C 96 % 15 lf 1006,9 hPa 0,0 l/m 0 min 0 min 0 W/m 2,1 km/h (1 Bft) 97,83 %
22.05.2016 23:50 14,4 C 13,9 C 12,8 C 96 % 15 lf 1006,9 hPa 0,0 l/m 0 min 0 min 0 W/m 4,2 km/h (1 Bft) 95,74 %
22.05.2016 23:52 14,4 C 13,9 C 12,8 C 96 % 15 lf 1006,9 hPa 0,0 l/m 0 min 0 min 0 W/m 4,2 km/h (1 Bft) 93,62 %
22.05.2016 23:54 14,4 C 13,9 C 12,8 C 96 % 15 lf 1006,8 hPa 0,0 l/m 0 min 0 min 0 W/m 4,2 km/h (1 Bft) 95,74 %
22.05.2016 23:56 14,4 C 13,9 C 12,8 C 96 % 15 lf 1006,7 hPa 0,0 l/m 0 min 0 min 0 W/m 4,2 km/h (1 Bft) 97,87 %
22.05.2016 23:58 14,4 C 13,9 C 12,8 C 96 % 15 lf 1006,7 hPa 0,0 l/m 0 min 0 min 0 W/m 6,3 km/h (2 Bft) 97,87 %
_ Min-Zeit 23:50 23:26 23:22 00:00 00:00 07:58 - - - - 16:04 21:26
Minimum _ 14,4 C 13,9 C 12,8 C 68 % 0 lf 1005,3 hPa - - - - 0,0 km/h (0 Bft) 84,62 %
_ Max-Zeit 10:04 09:50 09:52 21:54 15:02 00:02 15:22 06:54 11:06 09:48 12:08 00:40
Maximum _ 21,2 C 27,8 C 22,2 C 97 % 15 lf 1010,1 hPa 0,2 l/m 2 min 2 min 601 W/m 35,6 km/h
SW (5 Bft)
100,00 %
Durchschnitt _ 17,7 C 17,7 C 16,0 C 82 % 6 lf 1007,1 hPa #5,8 l/m #2:00 h #6:42 h 126 W/m 11,7 km/h (2 Bft) 96,00 %
© 2016 W. Hausmann